GFSWCAN_prec_precacc_024.txt.gz
Total_Precipitation_Accumulation
0.44 0.16 0.03 0.01 0.00 0.00 0.00 0.00 0.00 0.00 0.00 0.00 0.00 0.00 0.00 0.00 0.00 0.00 0.00 0.00 0.00 0.00 0.00 0.00 0.00 0.00 0.00 0.00 0.00 0.00 0.00 0.00 0.00 0.00 0.00 0.00 0.00 0.00 0.00 0.00 0.00 0.00 0.00 0.00 0.03 0.04 0.01 0.00 0.01 0.05 0.04 0.03 0.04 0.03
0.60 0.38 0.09 0.01 0.00 0.00 0.00 0.00 0.00 0.00 0.00 0.00 0.00 0.00 0.00 0.00 0.00 0.00 0.00 0.00 0.00 0.00 0.00 0.00 0.00 0.00 0.00 0.00 0.00 0.00 0.00 0.00 0.00 0.00 0.00 0.00 0.00 0.00 0.00 0.00 0.00 0.00 0.00 0.00 0.04 0.02 0.00 0.00 0.01 0.02 0.03 0.04 0.03 0.03
0.67 0.49 0.30 0.06 0.01 0.00 0.00 0.00 0.00 0.00 0.00 0.00 0.00 0.00 0.00 0.00 0.00 0.00 0.00 0.00 0.00 0.00 0.00 0.00 0.00 0.00 0.00 0.00 0.00 0.00 0.00 0.00 0.00 0.00 0.00 0.01 0.02 0.00 0.01 0.01 0.02 0.03 0.00 0.00 0.02 0.02 0.00 0.01 0.00 0.01 0.03 0.04 0.05 0.14
0.67 0.50 0.40 0.23 0.07 0.01 0.00 0.00 0.00 0.00 0.00 0.00 0.00 0.00 0.00 0.00 0.00 0.00 0.00 0.00 0.00 0.00 0.03 0.00 0.00 0.00 0.00 0.00 0.00 0.00 0.00 0.00 0.01 0.01 0.02 0.06 0.08 0.05 0.05 0.02 0.07 0.05 0.02 0.02 0.05 0.01 0.01 0.02 0.05 0.08 0.12 0.19 0.16 0.05
0.50 0.57 0.42 0.32 0.25 0.12 0.02 0.00 0.00 0.00 0.01 0.01 0.01 0.01 0.00 0.00 0.00 0.00 0.00 0.00 0.00 0.01 0.02 0.00 0.00 0.00 0.00 0.00 0.00 0.00 0.00 0.00 0.01 0.03 0.03 0.02 0.01 0.01 0.03 0.06 0.09 0.01 0.00 0.04 0.05 0.05 0.12 0.16 0.18 0.22 0.17 0.06 0.04 0.06
0.38 0.39 0.42 0.33 0.29 0.32 0.16 0.05 0.01 0.01 0.01 0.01 0.01 0.01 0.00 0.00 0.00 0.00 0.01 0.00 0.00 0.00 0.00 0.01 0.00 0.00 0.00 0.00 0.00 0.00 0.00 0.00 0.00 0.00 0.01 0.01 0.00 0.03 0.07 0.06 0.01 0.00 0.01 0.04 0.05 0.06 0.10 0.15 0.11 0.04 0.01 0.01 0.01 0.00
0.29 0.23 0.26 0.29 0.26 0.31 0.39 0.21 0.08 0.02 0.01 0.01 0.01 0.01 0.00 0.01 0.00 0.01 0.01 0.00 0.00 0.00 0.02 0.01 0.00 0.00 0.00 0.00 0.00 0.00 0.00 0.00 0.00 0.02 0.02 0.00 0.01 0.13 0.17 0.07 0.00 0.01 0.02 0.01 0.01 0.04 0.05 0.03 0.02 0.00 0.00 0.00 0.00 0.00
0.15 0.14 0.12 0.16 0.15 0.18 0.27 0.37 0.25 0.13 0.05 0.03 0.04 0.07 0.14 0.25 0.13 0.07 0.04 0.03 0.01 0.03 0.06 0.03 0.02 0.00 0.00 0.00 0.00 0.00 0.00 0.00 0.01 0.02 0.01 0.00 0.01 0.06 0.08 0.00 0.00 0.00 0.00 0.01 0.01 0.01 0.03 0.02 0.00 0.00 0.00 0.00 0.00 0.00
0.05 0.06 0.04 0.03 0.06 0.09 0.14 0.24 0.35 0.32 0.24 0.21 0.29 0.36 0.38 0.29 0.16 0.13 0.18 0.23 0.25 0.28 0.25 0.10 0.02 0.01 0.01 0.00 0.00 0.01 0.00 0.01 0.01 0.00 0.00 0.01 0.01 0.05 0.03 0.00 0.00 0.00 0.00 0.00 0.00 0.00 0.00 0.00 0.00 0.00 0.00 0.00 0.00 0.00
0.00 0.01 0.01 0.00 0.00 0.01 0.04 0.15 0.29 0.47 0.79 1.11 1.01 0.88 0.64 0.40 0.42 0.31 0.39 0.53 0.67 0.52 0.32 0.14 0.04 0.04 0.03 0.02 0.03 0.05 0.07 0.05 0.02 0.00 0.00 0.00 0.00 0.00 0.00 0.00 0.00 0.00 0.00 0.00 0.00 0.00 0.01 0.01 0.00 0.00 0.00 0.00 0.00 0.00
0.00 0.00 0.00 0.00 0.00 0.00 0.01 0.10 0.29 0.64 1.44 1.79 1.66 1.14 0.65 0.62 0.31 0.48 0.71 0.59 0.36 0.19 0.15 0.12 0.07 0.03 0.01 0.03 0.10 0.18 0.17 0.05 0.04 0.01 0.01 0.02 0.00 0.00 0.00 0.00 0.00 0.00 0.00 0.00 0.00 0.00 0.00 0.00 0.00 0.00 0.00 0.00 0.00 0.00
0.00 0.00 0.00 0.00 0.00 0.02 0.03 0.11 0.29 0.50 0.91 1.36 1.20 0.84 0.80 0.92 0.82 0.90 0.84 0.44 0.12 0.04 0.01 0.01 0.02 0.04 0.09 0.08 0.12 0.28 0.19 0.14 0.08 0.01 0.06 0.04 0.00 0.00 0.00 0.00 0.00 0.00 0.00 0.00 0.00 0.00 0.00 0.00 0.00 0.00 0.00 0.00 0.00 0.00
0.00 0.00 0.00 0.00 0.00 0.03 0.03 0.08 0.12 0.27 0.47 0.79 1.10 1.47 1.45 1.59 1.38 1.02 0.51 0.23 0.07 0.01 0.00 0.01 0.04 0.07 0.09 0.13 0.26 0.23 0.24 0.19 0.06 0.05 0.03 0.00 0.00 0.00 0.00 0.00 0.00 0.00 0.00 0.00 0.00 0.00 0.00 0.00 0.00 0.00 0.00 0.00 0.00 0.00
0.01 0.00 0.00 0.00 0.00 0.04 0.05 0.06 0.11 0.16 0.25 0.49 0.78 1.13 0.99 1.04 0.71 0.41 0.18 0.06 0.04 0.04 0.03 0.02 0.05 0.07 0.10 0.18 0.36 0.38 0.37 0.18 0.17 0.09 0.02 0.05 0.06 0.03 0.01 0.00 0.00 0.00 0.00 0.00 0.00 0.00 0.00 0.00 0.00 0.00 0.00 0.00 0.00 0.00
0.04 0.00 0.00 0.00 0.00 0.03 0.11 0.11 0.15 0.03 0.05 0.12 0.22 0.43 0.47 0.40 0.28 0.18 0.16 0.12 0.10 0.12 0.16 0.25 0.32 0.26 0.22 0.33 0.35 0.27 0.24 0.22 0.17 0.20 0.19 0.13 0.04 0.00 0.00 0.00 0.00 0.00 0.00 0.00 0.00 0.00 0.00 0.00 0.00 0.00 0.00 0.00 0.00 0.00
0.15 0.04 0.01 0.01 0.01 0.03 0.08 0.13 0.12 0.04 0.08 0.01 0.08 0.14 0.18 0.16 0.21 0.22 0.21 0.19 0.21 0.28 0.30 0.30 0.29 0.29 0.30 0.26 0.23 0.22 0.22 0.25 0.26 0.11 0.02 0.00 0.00 0.00 0.00 0.00 0.00 0.00 0.00 0.00 0.00 0.00 0.00 0.00 0.00 0.00 0.00 0.00 0.00 0.00
0.38 0.07 0.02 0.02 0.01 0.04 0.05 0.15 0.08 0.02 0.03 0.00 0.00 0.01 0.03 0.05 0.09 0.12 0.09 0.09 0.10 0.15 0.18 0.12 0.11 0.14 0.15 0.16 0.17 0.13 0.18 0.12 0.02 0.00 0.00 0.00 0.00 0.00 0.00 0.00 0.00 0.00 0.00 0.00 0.00 0.00 0.00 0.00 0.00 0.00 0.00 0.00 0.00 0.00
0.52 0.07 0.01 0.01 0.01 0.04 0.07 0.02 0.02 0.00 0.00 0.00 0.00 0.00 0.00 0.01 0.01 0.01 0.01 0.00 0.00 0.02 0.02 0.01 0.02 0.03 0.06 0.06 0.08 0.05 0.01 0.00 0.00 0.00 0.00 0.00 0.00 0.00 0.00 0.00 0.00 0.00 0.00 0.00 0.00 0.00 0.00 0.00 0.00 0.00 0.00 0.00 0.00 0.00
0.31 0.13 0.05 0.04 0.01 0.01 0.07 0.04 0.00 0.00 0.00 0.00 0.00 0.00 0.00 0.00 0.00 0.00 0.00 0.00 0.00 0.00 0.00 0.00 0.02 0.01 0.00 0.00 0.00 0.00 0.00 0.00 0.00 0.00 0.00 0.00 0.00 0.00 0.00 0.00 0.00 0.00 0.00 0.00 0.00 0.00 0.00 0.00 0.00 0.00 0.00 0.00 0.02 0.02
0.60 0.44 0.17 0.09 0.01 0.01 0.00 0.01 0.00 0.00 0.00 0.00 0.00 0.00 0.00 0.00 0.00 0.01 0.01 0.00 0.00 0.01 0.05 0.02 0.00 0.00 0.00 0.00 0.00 0.00 0.00 0.00 0.00 0.00 0.00 0.00 0.00 0.00 0.00 0.00 0.00 0.00 0.00 0.00 0.00 0.00 0.00 0.00 0.00 0.01 0.02 0.04 0.06 0.04
0.63 0.67 0.35 0.14 0.04 0.00 0.00 0.00 0.00 0.00 0.00 0.00 0.00 0.00 0.00 0.01 0.00 0.00 0.00 0.00 0.01 0.03 0.01 0.00 0.00 0.00 0.00 0.00 0.00 0.00 0.00 0.00 0.00 0.00 0.00 0.00 0.00 0.00 0.00 0.00 0.00 0.00 0.00 0.00 0.00 0.00 0.01 0.02 0.02 0.04 0.07 0.03 0.02 0.03
0.41 0.45 0.39 0.20 0.14 0.01 0.00 0.00 0.00 0.00 0.00 0.00 0.00 0.00 0.00 0.00 0.00 0.00 0.00 0.01 0.01 0.00 0.00 0.00 0.00 0.00 0.00 0.00 0.00 0.00 0.00 0.00 0.00 0.00 0.00 0.00 0.00 0.00 0.00 0.00 0.00 0.00 0.00 0.02 0.02 0.01 0.01 0.01 0.03 0.03 0.03 0.02 0.02 0.05
0.38 0.41 0.41 0.34 0.19 0.05 0.01 0.00 0.00 0.00 0.00 0.00 0.00 0.00 0.00 0.00 0.00 0.00 0.00 0.00 0.00 0.00 0.00 0.00 0.00 0.00 0.00 0.00 0.00 0.00 0.00 0.00 0.00 0.00 0.00 0.00 0.00 0.00 0.00 0.01 0.01 0.02 0.02 0.01 0.03 0.03 0.04 0.03 0.02 0.02 0.02 0.05 0.07 0.07
0.37 0.38 0.35 0.31 0.18 0.11 0.03 0.01 0.00 0.00 0.00 0.00 0.00 0.00 0.00 0.00 0.00 0.00 0.00 0.00 0.00 0.00 0.00 0.00 0.00 0.00 0.00 0.00 0.00 0.00 0.00 0.00 0.00 0.00 0.00 0.00 0.01 0.01 0.02 0.01 0.02 0.03 0.03 0.03 0.03 0.02 0.02 0.02 0.04 0.05 0.07 0.08 0.07 0.09
0.30 0.29 0.24 0.16 0.06 0.03 0.02 0.02 0.01 0.01 0.00 0.00 0.00 0.00 0.00 0.00 0.00 0.00 0.00 0.02 0.01 0.01 0.00 0.00 0.00 0.00 0.00 0.00 0.00 0.00 0.00 0.00 0.00 0.00 0.01 0.02 0.02 0.02 0.01 0.02 0.02 0.03 0.04 0.03 0.03 0.04 0.05 0.07 0.07 0.07 0.06 0.07 0.10 0.11
0.15 0.09 0.08 0.04 0.02 0.03 0.02 0.01 0.02 0.01 0.00 0.00 0.00 0.00 0.00 0.00 0.00 0.00 0.02 0.04 0.02 0.01 0.00 0.00 0.00 0.00 0.00 0.00 0.00 0.00 0.00 0.00 0.00 0.00 0.00 0.01 0.02 0.03 0.03 0.03 0.02 0.02 0.03 0.06 0.11 0.11 0.07 0.04 0.05 0.07 0.08 0.08 0.11 0.13
0.06 0.03 0.01 0.00 0.02 0.05 0.04 0.04 0.04 0.04 0.04 0.02 0.01 0.00 0.00 0.00 0.00 0.02 0.02 0.02 0.02 0.02 0.00 0.00 0.00 0.00 0.00 0.00 0.00 0.00 0.00 0.00 0.00 0.00 0.01 0.03 0.03 0.04 0.08 0.15 0.16 0.13 0.07 0.08 0.12 0.14 0.15 0.12 0.11 0.10 0.11 0.09 0.11 0.16
0.01 0.02 0.04 0.06 0.07 0.05 0.05 0.04 0.03 0.01 0.01 0.01 0.00 0.00 0.00 0.00 0.01 0.02 0.02 0.02 0.01 0.02 0.01 0.00 0.00 0.00 0.00 0.01 0.01 0.01 0.00 0.00 0.00 0.00 0.02 0.05 0.06 0.09 0.10 0.10 0.11 0.08 0.07 0.09 0.10 0.11 0.16 0.19 0.17 0.15 0.15 0.16 0.16 0.12
0.03 0.02 0.03 0.03 0.02 0.01 0.00 0.00 0.00 0.00 0.00 0.00 0.00 0.00 0.01 0.01 0.03 0.03 0.02 0.01 0.00 0.00 0.00 0.00 0.00 0.00 0.00 0.00 0.01 0.02 0.02 0.03 0.04 0.03 0.02 0.03 0.08 0.10 0.08 0.07 0.07 0.07 0.07 0.07 0.08 0.12 0.15 0.15 0.13 0.14 0.19 0.19 0.17 0.18
0.00 0.00 0.01 0.01 0.01 0.02 0.01 0.01 0.01 0.00 0.00 0.00 0.00 0.00 0.01 0.03 0.04 0.02 0.01 0.01 0.01 0.02 0.03 0.02 0.02 0.01 0.02 0.02 0.02 0.04 0.09 0.08 0.10 0.13 0.12 0.10 0.10 0.09 0.07 0.07 0.07 0.07 0.07 0.07 0.06 0.05 0.05 0.04 0.05 0.12 0.12 0.11 0.17 0.22
0.01 0.01 0.01 0.01 0.01 0.01 0.00 0.00 0.00 0.00 0.00 0.00 0.00 0.01 0.05 0.04 0.05 0.02 0.02 0.03 0.02 0.01 0.01 0.02 0.02 0.04 0.05 0.05 0.08 0.09 0.11 0.11 0.11 0.12 0.12 0.11 0.10 0.08 0.07 0.05 0.05 0.05 0.05 0.06 0.06 0.06 0.07 0.06 0.08 0.11 0.08 0.08 0.11 0.12
0.01 0.01 0.01 0.01 0.01 0.01 0.00 0.00 0.00 0.00 0.00 0.00 0.02 0.01 0.03 0.02 0.03 0.06 0.04 0.02 0.01 0.03 0.05 0.07 0.08 0.10 0.13 0.15 0.14 0.14 0.14 0.13 0.11 0.11 0.11 0.11 0.09 0.07 0.04 0.04 0.04 0.05 0.05 0.05 0.06 0.07 0.08 0.07 0.08 0.06 0.08 0.07 0.08 0.08
0.01 0.01 0.01 0.01 0.00 0.00 0.00 0.00 0.00 0.00 0.00 0.01 0.03 0.03 0.03 0.05 0.11 0.13 0.08 0.08 0.12 0.14 0.15 0.16 0.17 0.17 0.19 0.17 0.14 0.14 0.13 0.12 0.10 0.09 0.09 0.08 0.05 0.04 0.03 0.03 0.03 0.04 0.05 0.05 0.06 0.08 0.07 0.06 0.06 0.06 0.06 0.06 0.07 0.06

GFSWCAN_prec_precacc_030.txt.gz
Total_Precipitation_Accumulation
0.44 0.16 0.03 0.01 0.01 0.00 0.00 0.00 0.00 0.00 0.00 0.00 0.00 0.00 0.00 0.00 0.00 0.00 0.01 0.00 0.00 0.00 0.00 0.00 0.00 0.00 0.00 0.00 0.00 0.00 0.00 0.00 0.00 0.00 0.00 0.00 0.00 0.00 0.00 0.00 0.00 0.00 0.00 0.00 0.03 0.04 0.01 0.00 0.01 0.05 0.04 0.03 0.04 0.03
0.60 0.38 0.09 0.01 0.00 0.00 0.00 0.00 0.00 0.01 0.00 0.00 0.00 0.00 0.00 0.00 0.00 0.00 0.01 0.00 0.00 0.00 0.00 0.00 0.00 0.00 0.00 0.00 0.00 0.00 0.00 0.00 0.00 0.00 0.00 0.00 0.00 0.00 0.00 0.00 0.00 0.00 0.00 0.00 0.04 0.02 0.00 0.00 0.01 0.02 0.03 0.04 0.03 0.03
0.67 0.49 0.30 0.06 0.01 0.00 0.00 0.00 0.00 0.01 0.00 0.01 0.01 0.00 0.00 0.00 0.00 0.00 0.00 0.00 0.00 0.00 0.00 0.00 0.00 0.00 0.00 0.00 0.00 0.00 0.00 0.00 0.00 0.00 0.00 0.01 0.02 0.00 0.01 0.01 0.02 0.03 0.00 0.00 0.02 0.02 0.00 0.01 0.00 0.01 0.03 0.04 0.05 0.14
0.67 0.50 0.40 0.23 0.07 0.01 0.00 0.00 0.00 0.01 0.01 0.00 0.01 0.01 0.00 0.00 0.00 0.00 0.00 0.00 0.00 0.00 0.03 0.00 0.00 0.00 0.00 0.00 0.00 0.00 0.00 0.00 0.01 0.01 0.02 0.06 0.08 0.05 0.05 0.02 0.07 0.05 0.02 0.02 0.05 0.01 0.01 0.02 0.05 0.08 0.12 0.19 0.16 0.05
0.50 0.57 0.42 0.32 0.26 0.12 0.02 0.00 0.01 0.00 0.01 0.01 0.02 0.02 0.00 0.00 0.00 0.00 0.00 0.00 0.00 0.01 0.02 0.00 0.00 0.00 0.00 0.00 0.00 0.00 0.00 0.00 0.01 0.03 0.03 0.02 0.01 0.01 0.03 0.06 0.09 0.01 0.00 0.04 0.05 0.05 0.12 0.16 0.18 0.22 0.17 0.06 0.04 0.06
0.39 0.39 0.42 0.33 0.30 0.32 0.16 0.05 0.01 0.01 0.01 0.01 0.02 0.01 0.00 0.00 0.00 0.00 0.01 0.00 0.00 0.00 0.00 0.01 0.00 0.00 0.00 0.00 0.00 0.00 0.00 0.00 0.00 0.00 0.01 0.01 0.00 0.03 0.07 0.06 0.01 0.00 0.01 0.04 0.05 0.06 0.10 0.15 0.11 0.04 0.01 0.01 0.01 0.00
0.35 0.24 0.27 0.29 0.28 0.31 0.39 0.21 0.09 0.03 0.01 0.01 0.01 0.01 0.00 0.01 0.00 0.01 0.01 0.00 0.00 0.00 0.02 0.01 0.00 0.00 0.00 0.00 0.00 0.00 0.00 0.00 0.00 0.02 0.02 0.00 0.01 0.13 0.17 0.07 0.00 0.01 0.02 0.01 0.01 0.04 0.05 0.03 0.02 0.00 0.00 0.00 0.00 0.00
0.28 0.18 0.14 0.17 0.17 0.21 0.27 0.37 0.26 0.13 0.05 0.03 0.04 0.07 0.14 0.25 0.13 0.07 0.04 0.03 0.01 0.03 0.06 0.03 0.02 0.00 0.00 0.00 0.00 0.00 0.00 0.00 0.01 0.02 0.01 0.00 0.01 0.06 0.08 0.00 0.00 0.00 0.00 0.01 0.01 0.01 0.03 0.02 0.00 0.00 0.00 0.00 0.00 0.01
0.18 0.12 0.07 0.05 0.07 0.14 0.15 0.24 0.35 0.33 0.24 0.21 0.29 0.36 0.38 0.29 0.16 0.13 0.18 0.23 0.25 0.28 0.25 0.10 0.02 0.01 0.01 0.00 0.00 0.01 0.00 0.01 0.01 0.00 0.00 0.01 0.01 0.05 0.03 0.00 0.00 0.00 0.00 0.00 0.00 0.00 0.00 0.00 0.00 0.00 0.00 0.01 0.03 0.04
0.12 0.06 0.03 0.01 0.00 0.03 0.06 0.15 0.30 0.47 0.79 1.11 1.01 0.88 0.64 0.40 0.42 0.31 0.39 0.53 0.67 0.52 0.32 0.14 0.04 0.04 0.03 0.02 0.03 0.05 0.07 0.05 0.02 0.00 0.00 0.00 0.00 0.00 0.00 0.00 0.00 0.00 0.00 0.00 0.00 0.00 0.01 0.02 0.02 0.04 0.09 0.09 0.05 0.01
0.11 0.07 0.03 0.01 0.00 0.00 0.01 0.10 0.29 0.64 1.44 1.79 1.66 1.14 0.65 0.62 0.31 0.48 0.71 0.59 0.36 0.19 0.15 0.12 0.07 0.03 0.01 0.03 0.10 0.18 0.17 0.05 0.04 0.01 0.01 0.02 0.00 0.00 0.00 0.00 0.00 0.00 0.00 0.00 0.00 0.00 0.01 0.05 0.11 0.11 0.08 0.06 0.03 0.01
0.09 0.06 0.05 0.02 0.00 0.02 0.04 0.12 0.30 0.50 0.91 1.36 1.20 0.84 0.80 0.92 0.82 0.90 0.84 0.44 0.12 0.04 0.01 0.01 0.02 0.04 0.09 0.08 0.12 0.28 0.19 0.14 0.08 0.01 0.06 0.04 0.00 0.00 0.00 0.00 0.00 0.00 0.00 0.00 0.03 0.08 0.13 0.16 0.13 0.09 0.05 0.02 0.00 0.00
0.03 0.02 0.02 0.02 0.01 0.04 0.06 0.11 0.16 0.33 0.52 0.82 1.11 1.48 1.47 1.62 1.39 1.03 0.52 0.23 0.07 0.01 0.00 0.01 0.04 0.07 0.09 0.13 0.30 0.28 0.30 0.21 0.06 0.07 0.05 0.05 0.02 0.02 0.03 0.02 0.01 0.02 0.04 0.08 0.10 0.09 0.06 0.03 0.01 0.00 0.00 0.00 0.00 0.00
0.01 0.00 0.00 0.00 0.00 0.05 0.07 0.09 0.16 0.23 0.32 0.62 0.90 1.23 1.05 1.10 0.75 0.45 0.19 0.06 0.05 0.04 0.03 0.02 0.05 0.07 0.10 0.22 0.47 0.48 0.47 0.24 0.24 0.14 0.06 0.13 0.20 0.11 0.02 0.00 0.00 0.00 0.00 0.00 0.00 0.00 0.00 0.00 0.00 0.00 0.00 0.00 0.00 0.00
0.04 0.00 0.00 0.00 0.00 0.03 0.11 0.12 0.17 0.04 0.11 0.23 0.33 0.53 0.55 0.41 0.29 0.19 0.17 0.13 0.13 0.15 0.18 0.27 0.36 0.30 0.29 0.41 0.43 0.35 0.31 0.28 0.23 0.24 0.25 0.27 0.13 0.01 0.00 0.01 0.01 0.00 0.00 0.00 0.00 0.00 0.00 0.00 0.00 0.00 0.00 0.00 0.00 0.00
0.15 0.04 0.01 0.01 0.01 0.03 0.08 0.13 0.12 0.05 0.09 0.02 0.09 0.16 0.20 0.17 0.22 0.23 0.23 0.21 0.23 0.30 0.34 0.35 0.33 0.36 0.41 0.37 0.29 0.26 0.27 0.29 0.30 0.14 0.03 0.02 0.00 0.01 0.01 0.05 0.02 0.00 0.00 0.00 0.00 0.00 0.00 0.00 0.00 0.00 0.00 0.00 0.00 0.00
0.38 0.07 0.02 0.02 0.01 0.04 0.05 0.15 0.08 0.02 0.03 0.00 0.01 0.01 0.03 0.05 0.09 0.13 0.09 0.10 0.10 0.16 0.19 0.13 0.13 0.17 0.20 0.22 0.23 0.20 0.24 0.16 0.06 0.01 0.00 0.00 0.00 0.00 0.00 0.00 0.00 0.00 0.00 0.00 0.00 0.00 0.00 0.00 0.00 0.00 0.00 0.00 0.00 0.00
0.52 0.07 0.01 0.01 0.01 0.04 0.07 0.02 0.02 0.00 0.00 0.00 0.00 0.01 0.01 0.01 0.01 0.01 0.01 0.00 0.00 0.02 0.02 0.01 0.02 0.03 0.07 0.08 0.11 0.07 0.01 0.01 0.01 0.01 0.00 0.00 0.00 0.00 0.00 0.00 0.00 0.00 0.00 0.00 0.00 0.00 0.00 0.00 0.00 0.00 0.00 0.00 0.00 0.00
0.31 0.13 0.05 0.04 0.01 0.01 0.07 0.04 0.00 0.00 0.00 0.00 0.00 0.01 0.01 0.01 0.00 0.00 0.00 0.00 0.00 0.00 0.00 0.00 0.02 0.01 0.01 0.00 0.00 0.00 0.00 0.00 0.00 0.00 0.00 0.00 0.00 0.00 0.00 0.00 0.00 0.00 0.00 0.00 0.00 0.00 0.00 0.00 0.00 0.00 0.00 0.00 0.02 0.02
0.60 0.44 0.17 0.09 0.01 0.01 0.00 0.01 0.00 0.00 0.00 0.00 0.00 0.00 0.00 0.00 0.01 0.01 0.01 0.00 0.00 0.01 0.05 0.02 0.00 0.00 0.00 0.00 0.00 0.00 0.00 0.00 0.00 0.00 0.00 0.00 0.00 0.00 0.00 0.00 0.00 0.00 0.00 0.00 0.00 0.00 0.00 0.00 0.00 0.01 0.02 0.04 0.07 0.04
0.63 0.67 0.35 0.14 0.04 0.00 0.00 0.00 0.00 0.00 0.00 0.00 0.00 0.00 0.00 0.01 0.00 0.00 0.00 0.00 0.01 0.03 0.01 0.00 0.00 0.00 0.00 0.00 0.00 0.00 0.00 0.00 0.00 0.00 0.00 0.00 0.00 0.00 0.00 0.00 0.00 0.00 0.00 0.00 0.00 0.00 0.01 0.02 0.02 0.04 0.07 0.03 0.03 0.03
0.41 0.45 0.39 0.20 0.14 0.01 0.00 0.00 0.00 0.00 0.00 0.00 0.00 0.00 0.00 0.01 0.01 0.01 0.00 0.01 0.01 0.00 0.00 0.00 0.00 0.00 0.00 0.00 0.00 0.00 0.00 0.00 0.00 0.00 0.00 0.00 0.00 0.00 0.00 0.00 0.00 0.00 0.00 0.02 0.03 0.01 0.01 0.02 0.03 0.03 0.03 0.02 0.03 0.05
0.38 0.41 0.41 0.34 0.19 0.05 0.01 0.00 0.00 0.00 0.00 0.01 0.01 0.00 0.00 0.00 0.01 0.00 0.00 0.00 0.00 0.00 0.00 0.00 0.00 0.00 0.00 0.00 0.00 0.00 0.00 0.00 0.00 0.00 0.00 0.00 0.00 0.00 0.01 0.01 0.02 0.03 0.02 0.01 0.04 0.03 0.04 0.03 0.02 0.02 0.02 0.05 0.08 0.08
0.37 0.38 0.35 0.31 0.18 0.11 0.04 0.01 0.00 0.00 0.00 0.00 0.00 0.00 0.00 0.00 0.01 0.01 0.00 0.01 0.01 0.00 0.00 0.00 0.00 0.00 0.00 0.00 0.00 0.00 0.00 0.00 0.00 0.00 0.00 0.00 0.01 0.01 0.02 0.02 0.02 0.03 0.03 0.03 0.03 0.02 0.02 0.02 0.04 0.05 0.07 0.09 0.08 0.09
0.30 0.29 0.24 0.16 0.06 0.03 0.02 0.02 0.02 0.02 0.01 0.01 0.01 0.00 0.00 0.00 0.00 0.00 0.01 0.04 0.04 0.03 0.01 0.01 0.01 0.01 0.01 0.01 0.01 0.00 0.00 0.00 0.00 0.00 0.01 0.02 0.02 0.02 0.01 0.02 0.02 0.03 0.04 0.03 0.03 0.04 0.05 0.07 0.07 0.07 0.06 0.08 0.11 0.12
0.15 0.09 0.08 0.05 0.03 0.03 0.02 0.02 0.02 0.02 0.01 0.03 0.04 0.03 0.01 0.01 0.01 0.01 0.03 0.07 0.05 0.04 0.03 0.02 0.02 0.02 0.02 0.02 0.02 0.01 0.00 0.00 0.00 0.00 0.01 0.02 0.02 0.03 0.03 0.03 0.02 0.02 0.03 0.06 0.12 0.12 0.07 0.04 0.05 0.07 0.08 0.08 0.11 0.14
0.06 0.03 0.01 0.01 0.02 0.06 0.07 0.05 0.07 0.08 0.07 0.08 0.05 0.04 0.05 0.04 0.02 0.04 0.04 0.05 0.05 0.05 0.02 0.00 0.00 0.01 0.01 0.02 0.00 0.00 0.00 0.00 0.00 0.01 0.01 0.03 0.03 0.04 0.08 0.15 0.16 0.13 0.07 0.08 0.12 0.14 0.16 0.13 0.11 0.10 0.12 0.09 0.11 0.19
0.02 0.04 0.06 0.09 0.13 0.12 0.12 0.11 0.11 0.08 0.07 0.07 0.06 0.06 0.05 0.02 0.03 0.05 0.05 0.06 0.05 0.04 0.02 0.01 0.00 0.00 0.01 0.01 0.01 0.01 0.00 0.00 0.01 0.01 0.02 0.05 0.06 0.09 0.10 0.10 0.11 0.08 0.07 0.09 0.10 0.12 0.16 0.19 0.18 0.15 0.16 0.18 0.17 0.15
0.07 0.07 0.07 0.08 0.09 0.06 0.05 0.05 0.06 0.06 0.06 0.05 0.02 0.01 0.02 0.02 0.05 0.05 0.05 0.04 0.02 0.01 0.01 0.01 0.01 0.01 0.01 0.01 0.01 0.02 0.02 0.03 0.04 0.03 0.02 0.03 0.08 0.10 0.08 0.07 0.07 0.07 0.07 0.07 0.08 0.12 0.15 0.15 0.14 0.16 0.23 0.24 0.19 0.20
0.04 0.03 0.03 0.03 0.02 0.03 0.02 0.02 0.03 0.02 0.02 0.01 0.00 0.01 0.02 0.04 0.06 0.05 0.03 0.02 0.02 0.03 0.04 0.03 0.03 0.01 0.02 0.02 0.02 0.04 0.09 0.08 0.10 0.13 0.13 0.10 0.10 0.09 0.07 0.07 0.07 0.07 0.07 0.07 0.06 0.05 0.05 0.04 0.05 0.12 0.12 0.12 0.18 0.23
0.01 0.01 0.01 0.01 0.02 0.02 0.01 0.00 0.00 0.01 0.02 0.02 0.01 0.02 0.06 0.06 0.06 0.04 0.03 0.04 0.02 0.01 0.01 0.02 0.02 0.04 0.05 0.05 0.08 0.09 0.11 0.11 0.11 0.12 0.12 0.11 0.10 0.09 0.07 0.05 0.05 0.05 0.05 0.06 0.06 0.06 0.07 0.06 0.09 0.11 0.08 0.08 0.11 0.13
0.01 0.01 0.01 0.01 0.02 0.01 0.00 0.00 0.00 0.00 0.01 0.01 0.03 0.02 0.04 0.03 0.04 0.07 0.06 0.03 0.01 0.03 0.05 0.07 0.08 0.10 0.14 0.15 0.14 0.14 0.14 0.13 0.11 0.11 0.11 0.11 0.09 0.07 0.04 0.04 0.04 0.05 0.05 0.05 0.06 0.07 0.08 0.07 0.08 0.06 0.08 0.07 0.08 0.08
0.01 0.01 0.01 0.01 0.01 0.01 0.00 0.00 0.00 0.00 0.01 0.02 0.05 0.05 0.05 0.06 0.12 0.14 0.10 0.08 0.12 0.14 0.15 0.16 0.17 0.17 0.19 0.17 0.14 0.14 0.13 0.12 0.10 0.09 0.09 0.08 0.05 0.04 0.03 0.03 0.03 0.04 0.05 0.05 0.06 0.08 0.07 0.06 0.06 0.06 0.06 0.07 0.07 0.06

GFSWCAN_prec_precacc_033.txt.gz
Total_Precipitation_Accumulation
0.46 0.16 0.03 0.01 0.01 0.00 0.00 0.00 0.00 0.00 0.00 0.00 0.00 0.00 0.00 0.00 0.00 0.00 0.01 0.00 0.00 0.00 0.00 0.00 0.00 0.00 0.00 0.00 0.00 0.00 0.00 0.00 0.00 0.00 0.00 0.00 0.00 0.00 0.00 0.00 0.00 0.00 0.00 0.00 0.03 0.04 0.01 0.00 0.01 0.05 0.04 0.03 0.04 0.03
0.61 0.38 0.09 0.01 0.01 0.00 0.00 0.00 0.00 0.01 0.00 0.00 0.00 0.00 0.00 0.00 0.00 0.00 0.03 0.02 0.00 0.00 0.00 0.00 0.00 0.00 0.00 0.00 0.00 0.00 0.00 0.00 0.00 0.00 0.00 0.00 0.00 0.00 0.00 0.00 0.00 0.00 0.00 0.00 0.04 0.02 0.00 0.00 0.01 0.02 0.03 0.04 0.03 0.03
0.67 0.49 0.30 0.06 0.01 0.00 0.00 0.00 0.01 0.02 0.01 0.01 0.01 0.00 0.00 0.00 0.00 0.00 0.02 0.01 0.00 0.00 0.00 0.00 0.00 0.00 0.00 0.00 0.00 0.00 0.00 0.00 0.00 0.00 0.00 0.01 0.02 0.00 0.01 0.01 0.02 0.03 0.00 0.00 0.02 0.02 0.00 0.01 0.00 0.01 0.03 0.04 0.05 0.14
0.67 0.50 0.40 0.23 0.07 0.01 0.00 0.01 0.02 0.02 0.01 0.00 0.01 0.01 0.00 0.00 0.01 0.00 0.00 0.00 0.00 0.00 0.03 0.00 0.00 0.00 0.00 0.00 0.00 0.00 0.00 0.00 0.01 0.01 0.02 0.06 0.08 0.05 0.05 0.02 0.07 0.05 0.02 0.02 0.05 0.01 0.01 0.02 0.05 0.08 0.12 0.19 0.16 0.05
0.50 0.57 0.42 0.32 0.26 0.12 0.02 0.01 0.01 0.01 0.02 0.02 0.03 0.02 0.00 0.00 0.01 0.01 0.00 0.00 0.00 0.01 0.02 0.00 0.00 0.00 0.00 0.00 0.00 0.00 0.00 0.00 0.01 0.03 0.03 0.02 0.01 0.01 0.03 0.06 0.09 0.01 0.00 0.04 0.05 0.05 0.12 0.16 0.18 0.22 0.17 0.06 0.04 0.06
0.39 0.39 0.42 0.33 0.30 0.32 0.16 0.05 0.01 0.01 0.01 0.02 0.02 0.01 0.00 0.00 0.01 0.01 0.01 0.00 0.00 0.00 0.00 0.01 0.00 0.00 0.00 0.00 0.00 0.00 0.00 0.00 0.00 0.00 0.01 0.01 0.00 0.03 0.07 0.06 0.01 0.00 0.01 0.04 0.05 0.06 0.10 0.15 0.11 0.04 0.01 0.01 0.01 0.00
0.35 0.24 0.27 0.29 0.28 0.32 0.39 0.21 0.09 0.03 0.01 0.02 0.01 0.01 0.01 0.01 0.01 0.01 0.01 0.00 0.00 0.00 0.02 0.01 0.00 0.00 0.00 0.00 0.00 0.00 0.00 0.00 0.00 0.02 0.02 0.00 0.01 0.13 0.17 0.07 0.00 0.01 0.02 0.01 0.01 0.04 0.05 0.03 0.02 0.00 0.00 0.00 0.00 0.00
0.28 0.18 0.14 0.18 0.18 0.21 0.27 0.37 0.26 0.13 0.05 0.03 0.04 0.07 0.14 0.25 0.13 0.07 0.04 0.03 0.01 0.03 0.06 0.03 0.02 0.00 0.00 0.00 0.00 0.00 0.00 0.00 0.01 0.02 0.01 0.01 0.01 0.06 0.08 0.00 0.00 0.00 0.00 0.01 0.01 0.01 0.03 0.02 0.00 0.00 0.00 0.00 0.00 0.01
0.18 0.13 0.08 0.06 0.08 0.15 0.15 0.24 0.35 0.33 0.24 0.21 0.29 0.36 0.38 0.29 0.16 0.13 0.18 0.23 0.25 0.28 0.25 0.10 0.02 0.01 0.01 0.00 0.00 0.01 0.00 0.01 0.01 0.01 0.01 0.01 0.01 0.05 0.03 0.00 0.00 0.00 0.00 0.00 0.00 0.00 0.00 0.00 0.00 0.00 0.00 0.01 0.04 0.09
0.12 0.09 0.07 0.02 0.02 0.06 0.08 0.15 0.30 0.47 0.79 1.11 1.01 0.88 0.64 0.40 0.42 0.31 0.39 0.53 0.67 0.52 0.32 0.14 0.04 0.04 0.03 0.02 0.03 0.05 0.07 0.05 0.02 0.00 0.00 0.00 0.00 0.00 0.00 0.00 0.00 0.00 0.00 0.00 0.00 0.00 0.01 0.02 0.02 0.04 0.10 0.12 0.10 0.09
0.12 0.08 0.03 0.01 0.01 0.02 0.08 0.12 0.29 0.64 1.44 1.79 1.66 1.14 0.65 0.62 0.31 0.48 0.71 0.59 0.36 0.19 0.15 0.12 0.07 0.03 0.01 0.03 0.10 0.18 0.17 0.05 0.04 0.01 0.01 0.02 0.00 0.00 0.00 0.00 0.00 0.00 0.00 0.00 0.00 0.00 0.01 0.06 0.13 0.15 0.14 0.11 0.08 0.03
0.14 0.09 0.07 0.03 0.01 0.02 0.07 0.17 0.32 0.50 0.91 1.36 1.20 0.84 0.80 0.92 0.82 0.90 0.84 0.44 0.12 0.04 0.01 0.01 0.02 0.04 0.09 0.08 0.12 0.28 0.19 0.14 0.08 0.01 0.06 0.05 0.00 0.00 0.00 0.00 0.00 0.00 0.00 0.00 0.03 0.09 0.14 0.17 0.16 0.11 0.06 0.02 0.00 0.00
0.16 0.12 0.10 0.07 0.04 0.04 0.06 0.11 0.16 0.33 0.52 0.82 1.11 1.48 1.47 1.62 1.39 1.03 0.52 0.23 0.07 0.01 0.00 0.01 0.04 0.07 0.09 0.13 0.30 0.29 0.31 0.22 0.07 0.08 0.07 0.06 0.02 0.03 0.04 0.02 0.01 0.02 0.04 0.08 0.10 0.09 0.06 0.03 0.01 0.00 0.00 0.00 0.00 0.00
0.09 0.10 0.10 0.08 0.07 0.09 0.09 0.09 0.16 0.23 0.32 0.62 0.90 1.23 1.05 1.10 0.75 0.45 0.19 0.06 0.05 0.04 0.03 0.02 0.05 0.07 0.10 0.22 0.49 0.52 0.52 0.26 0.27 0.16 0.07 0.16 0.23 0.12 0.02 0.00 0.00 0.00 0.00 0.00 0.00 0.00 0.00 0.00 0.00 0.00 0.00 0.00 0.00 0.00
0.05 0.02 0.03 0.04 0.04 0.08 0.16 0.16 0.19 0.04 0.11 0.23 0.33 0.55 0.56 0.42 0.29 0.19 0.17 0.13 0.13 0.15 0.18 0.28 0.36 0.30 0.30 0.43 0.45 0.38 0.33 0.29 0.24 0.24 0.26 0.28 0.15 0.01 0.01 0.01 0.01 0.00 0.00 0.00 0.00 0.00 0.00 0.00 0.00 0.00 0.00 0.00 0.00 0.00
0.15 0.04 0.01 0.01 0.01 0.03 0.08 0.14 0.13 0.06 0.13 0.05 0.11 0.17 0.21 0.18 0.24 0.25 0.25 0.22 0.24 0.31 0.36 0.39 0.35 0.37 0.44 0.39 0.30 0.27 0.27 0.29 0.31 0.15 0.04 0.02 0.01 0.01 0.02 0.05 0.02 0.00 0.00 0.00 0.00 0.00 0.00 0.00 0.00 0.00 0.00 0.00 0.00 0.00
0.38 0.07 0.02 0.02 0.01 0.04 0.05 0.15 0.08 0.02 0.05 0.01 0.02 0.02 0.04 0.06 0.11 0.15 0.12 0.12 0.12 0.17 0.20 0.14 0.13 0.17 0.20 0.22 0.24 0.20 0.24 0.16 0.06 0.01 0.00 0.00 0.00 0.00 0.00 0.00 0.00 0.00 0.00 0.00 0.00 0.00 0.00 0.00 0.00 0.00 0.00 0.00 0.00 0.00
0.52 0.07 0.01 0.01 0.01 0.04 0.07 0.02 0.02 0.00 0.00 0.01 0.01 0.02 0.01 0.01 0.02 0.01 0.01 0.00 0.00 0.02 0.02 0.01 0.02 0.03 0.07 0.08 0.11 0.07 0.01 0.01 0.01 0.01 0.00 0.00 0.00 0.00 0.00 0.00 0.00 0.00 0.00 0.00 0.00 0.00 0.00 0.00 0.00 0.00 0.00 0.00 0.00 0.00
0.31 0.13 0.05 0.04 0.01 0.01 0.07 0.04 0.00 0.00 0.01 0.01 0.01 0.01 0.02 0.02 0.01 0.00 0.00 0.00 0.00 0.00 0.00 0.00 0.02 0.01 0.01 0.00 0.00 0.00 0.00 0.00 0.00 0.00 0.00 0.00 0.00 0.00 0.00 0.00 0.00 0.00 0.00 0.00 0.00 0.00 0.00 0.00 0.00 0.00 0.00 0.00 0.02 0.02
0.60 0.44 0.17 0.09 0.01 0.01 0.00 0.01 0.00 0.00 0.00 0.01 0.01 0.01 0.01 0.01 0.01 0.01 0.01 0.00 0.00 0.01 0.05 0.02 0.00 0.00 0.00 0.00 0.00 0.00 0.00 0.00 0.00 0.00 0.00 0.00 0.00 0.00 0.00 0.00 0.00 0.00 0.00 0.00 0.00 0.00 0.00 0.00 0.00 0.01 0.02 0.04 0.07 0.04
0.63 0.67 0.35 0.14 0.04 0.00 0.00 0.00 0.00 0.00 0.00 0.00 0.00 0.00 0.00 0.01 0.00 0.00 0.00 0.00 0.01 0.03 0.01 0.00 0.00 0.00 0.00 0.00 0.00 0.00 0.00 0.00 0.00 0.00 0.00 0.00 0.00 0.00 0.00 0.00 0.00 0.00 0.00 0.00 0.00 0.00 0.01 0.02 0.02 0.04 0.07 0.03 0.03 0.03
0.41 0.45 0.39 0.20 0.14 0.01 0.00 0.00 0.00 0.00 0.00 0.00 0.00 0.00 0.00 0.01 0.01 0.01 0.00 0.01 0.01 0.00 0.00 0.00 0.00 0.00 0.00 0.00 0.00 0.00 0.00 0.00 0.00 0.00 0.00 0.00 0.00 0.00 0.00 0.00 0.00 0.00 0.00 0.02 0.03 0.01 0.01 0.02 0.03 0.03 0.03 0.02 0.03 0.05
0.38 0.41 0.41 0.34 0.19 0.05 0.01 0.00 0.00 0.00 0.00 0.01 0.01 0.00 0.00 0.00 0.01 0.00 0.00 0.00 0.00 0.01 0.01 0.00 0.01 0.01 0.02 0.01 0.00 0.00 0.00 0.00 0.00 0.00 0.00 0.00 0.00 0.00 0.01 0.01 0.02 0.03 0.02 0.01 0.04 0.03 0.04 0.03 0.02 0.02 0.02 0.05 0.08 0.08
0.37 0.38 0.35 0.31 0.18 0.11 0.04 0.01 0.00 0.00 0.00 0.00 0.00 0.00 0.00 0.00 0.01 0.01 0.01 0.02 0.03 0.01 0.01 0.02 0.02 0.02 0.01 0.00 0.00 0.00 0.00 0.00 0.00 0.00 0.00 0.00 0.01 0.01 0.02 0.02 0.02 0.03 0.03 0.03 0.03 0.02 0.02 0.02 0.04 0.05 0.07 0.09 0.08 0.09
0.30 0.29 0.24 0.16 0.06 0.03 0.02 0.02 0.02 0.02 0.01 0.01 0.01 0.00 0.00 0.00 0.01 0.01 0.01 0.05 0.05 0.05 0.04 0.03 0.03 0.03 0.03 0.03 0.03 0.01 0.00 0.00 0.00 0.00 0.01 0.02 0.02 0.02 0.01 0.02 0.02 0.03 0.04 0.03 0.03 0.04 0.05 0.07 0.07 0.07 0.06 0.08 0.11 0.12
0.15 0.10 0.08 0.05 0.03 0.03 0.02 0.02 0.02 0.02 0.02 0.04 0.05 0.04 0.02 0.03 0.02 0.02 0.05 0.09 0.07 0.07 0.06 0.05 0.04 0.03 0.03 0.03 0.03 0.02 0.00 0.00 0.00 0.00 0.01 0.02 0.02 0.03 0.03 0.03 0.02 0.02 0.03 0.06 0.12 0.12 0.07 0.04 0.05 0.07 0.08 0.08 0.12 0.14
0.06 0.03 0.01 0.01 0.02 0.07 0.07 0.05 0.08 0.08 0.07 0.09 0.06 0.05 0.07 0.07 0.04 0.06 0.06 0.08 0.08 0.09 0.06 0.03 0.02 0.02 0.02 0.02 0.00 0.00 0.00 0.00 0.00 0.01 0.01 0.03 0.03 0.04 0.08 0.15 0.16 0.13 0.07 0.08 0.12 0.14 0.16 0.13 0.11 0.11 0.12 0.09 0.11 0.19
0.03 0.04 0.06 0.09 0.13 0.13 0.12 0.11 0.13 0.10 0.09 0.10 0.08 0.08 0.09 0.05 0.05 0.06 0.06 0.08 0.07 0.05 0.03 0.01 0.01 0.00 0.01 0.01 0.01 0.01 0.00 0.00 0.01 0.01 0.02 0.05 0.06 0.09 0.10 0.10 0.11 0.08 0.07 0.09 0.10 0.12 0.16 0.19 0.18 0.16 0.16 0.18 0.18 0.15
0.07 0.07 0.07 0.09 0.10 0.07 0.06 0.06 0.07 0.08 0.09 0.08 0.05 0.03 0.03 0.03 0.06 0.06 0.06 0.05 0.04 0.02 0.01 0.01 0.02 0.01 0.01 0.01 0.01 0.02 0.02 0.03 0.04 0.03 0.02 0.03 0.08 0.10 0.08 0.07 0.07 0.07 0.07 0.07 0.08 0.12 0.15 0.16 0.14 0.16 0.23 0.24 0.19 0.20
0.04 0.04 0.03 0.03 0.02 0.03 0.03 0.03 0.03 0.03 0.02 0.02 0.01 0.01 0.02 0.05 0.07 0.07 0.04 0.02 0.02 0.04 0.05 0.04 0.03 0.02 0.02 0.02 0.02 0.04 0.09 0.08 0.10 0.13 0.13 0.10 0.10 0.09 0.07 0.07 0.07 0.07 0.07 0.07 0.06 0.05 0.05 0.04 0.05 0.12 0.12 0.12 0.18 0.23
0.01 0.01 0.01 0.01 0.02 0.02 0.01 0.00 0.01 0.03 0.04 0.03 0.02 0.02 0.07 0.06 0.07 0.05 0.04 0.05 0.03 0.02 0.01 0.02 0.02 0.04 0.05 0.05 0.08 0.09 0.11 0.11 0.11 0.12 0.12 0.11 0.10 0.09 0.07 0.05 0.05 0.05 0.05 0.06 0.06 0.06 0.07 0.06 0.09 0.11 0.08 0.08 0.11 0.13
0.01 0.02 0.02 0.01 0.02 0.01 0.00 0.00 0.00 0.00 0.01 0.02 0.03 0.02 0.05 0.03 0.04 0.07 0.07 0.03 0.01 0.03 0.05 0.07 0.08 0.10 0.14 0.15 0.14 0.14 0.14 0.13 0.11 0.11 0.11 0.11 0.10 0.07 0.05 0.04 0.04 0.05 0.05 0.05 0.06 0.07 0.08 0.07 0.08 0.06 0.08 0.07 0.08 0.08
0.01 0.02 0.02 0.01 0.01 0.01 0.01 0.00 0.00 0.00 0.01 0.03 0.05 0.05 0.05 0.06 0.13 0.15 0.11 0.09 0.12 0.14 0.15 0.16 0.17 0.17 0.19 0.17 0.14 0.14 0.13 0.12 0.10 0.09 0.09 0.08 0.05 0.04 0.03 0.03 0.03 0.04 0.05 0.05 0.06 0.08 0.07 0.06 0.06 0.06 0.06 0.07 0.07 0.06

GFSWCAN_prec_precacc_036.txt.gz
Total_Precipitation_Accumulation
0.61 0.38 0.19 0.08 0.02 0.01 0.00 0.00 0.00 0.00 0.00 0.00 0.00 0.00 0.00 0.00 0.00 0.02 0.01 0.01 0.00 0.00 0.00 0.00 0.00 0.00 0.00 0.00 0.00 0.00 0.00 0.00 0.00 0.00 0.00 0.00 0.00 0.00 0.00 0.00 0.00 0.00 0.00 0.00 0.03 0.04 0.01 0.00 0.01 0.05 0.04 0.03 0.04 0.03
0.81 0.48 0.14 0.03 0.01 0.00 0.00 0.00 0.00 0.01 0.00 0.00 0.00 0.00 0.00 0.00 0.01 0.02 0.04 0.04 0.00 0.00 0.00 0.00 0.00 0.00 0.00 0.00 0.00 0.00 0.00 0.00 0.00 0.00 0.00 0.00 0.00 0.00 0.00 0.00 0.00 0.00 0.00 0.00 0.04 0.02 0.00 0.00 0.01 0.02 0.03 0.04 0.03 0.03
0.69 0.49 0.30 0.06 0.01 0.00 0.00 0.00 0.02 0.03 0.01 0.01 0.01 0.00 0.00 0.00 0.01 0.01 0.02 0.04 0.01 0.01 0.00 0.00 0.00 0.00 0.00 0.00 0.00 0.00 0.00 0.00 0.00 0.00 0.00 0.01 0.02 0.00 0.01 0.01 0.02 0.03 0.00 0.00 0.02 0.02 0.00 0.01 0.00 0.01 0.03 0.04 0.05 0.14
0.67 0.50 0.40 0.23 0.07 0.01 0.01 0.01 0.02 0.03 0.03 0.01 0.01 0.01 0.00 0.00 0.01 0.01 0.01 0.03 0.03 0.02 0.05 0.00 0.00 0.00 0.00 0.00 0.00 0.00 0.00 0.00 0.01 0.01 0.02 0.06 0.08 0.05 0.05 0.02 0.07 0.05 0.02 0.02 0.05 0.01 0.01 0.02 0.05 0.08 0.12 0.19 0.16 0.05
0.50 0.57 0.42 0.32 0.26 0.12 0.02 0.01 0.02 0.03 0.07 0.03 0.03 0.02 0.00 0.01 0.02 0.01 0.00 0.00 0.01 0.03 0.03 0.01 0.01 0.00 0.00 0.00 0.00 0.00 0.00 0.00 0.01 0.03 0.03 0.02 0.01 0.01 0.03 0.06 0.09 0.01 0.00 0.04 0.05 0.05 0.12 0.16 0.18 0.22 0.17 0.06 0.04 0.06
0.39 0.39 0.42 0.34 0.31 0.33 0.16 0.06 0.02 0.07 0.06 0.04 0.02 0.01 0.01 0.03 0.03 0.01 0.01 0.00 0.00 0.00 0.01 0.02 0.01 0.00 0.00 0.00 0.00 0.00 0.00 0.00 0.00 0.00 0.01 0.01 0.00 0.03 0.07 0.06 0.01 0.00 0.01 0.04 0.05 0.06 0.10 0.15 0.11 0.04 0.01 0.01 0.01 0.00
0.35 0.25 0.27 0.30 0.28 0.32 0.39 0.21 0.10 0.08 0.04 0.03 0.04 0.03 0.04 0.05 0.03 0.01 0.01 0.00 0.00 0.00 0.02 0.01 0.00 0.00 0.01 0.00 0.00 0.00 0.00 0.00 0.00 0.02 0.02 0.00 0.01 0.13 0.17 0.07 0.00 0.01 0.02 0.01 0.01 0.04 0.05 0.03 0.02 0.00 0.00 0.00 0.00 0.00
0.28 0.19 0.14 0.18 0.18 0.21 0.28 0.37 0.26 0.14 0.07 0.06 0.06 0.09 0.15 0.27 0.15 0.07 0.04 0.03 0.01 0.03 0.06 0.03 0.02 0.00 0.00 0.01 0.00 0.00 0.00 0.00 0.01 0.02 0.01 0.01 0.01 0.06 0.08 0.00 0.00 0.00 0.00 0.01 0.01 0.01 0.03 0.02 0.00 0.00 0.00 0.00 0.00 0.01
0.18 0.13 0.08 0.06 0.09 0.15 0.15 0.24 0.35 0.33 0.24 0.21 0.30 0.36 0.38 0.29 0.16 0.13 0.18 0.23 0.25 0.28 0.25 0.10 0.03 0.01 0.01 0.00 0.00 0.01 0.00 0.01 0.01 0.01 0.01 0.01 0.01 0.05 0.03 0.00 0.00 0.00 0.00 0.00 0.00 0.00 0.00 0.00 0.00 0.00 0.01 0.01 0.06 0.15
0.12 0.10 0.08 0.02 0.02 0.06 0.08 0.15 0.30 0.48 0.79 1.11 1.01 0.88 0.64 0.40 0.42 0.31 0.39 0.53 0.67 0.52 0.32 0.14 0.04 0.04 0.03 0.02 0.03 0.05 0.07 0.05 0.02 0.00 0.00 0.00 0.00 0.00 0.00 0.00 0.00 0.00 0.00 0.00 0.00 0.00 0.01 0.02 0.02 0.05 0.12 0.14 0.13 0.11
0.13 0.12 0.11 0.04 0.01 0.02 0.09 0.12 0.29 0.64 1.44 1.79 1.66 1.14 0.65 0.62 0.31 0.48 0.71 0.59 0.36 0.19 0.15 0.12 0.07 0.03 0.01 0.03 0.10 0.18 0.17 0.05 0.04 0.01 0.01 0.02 0.01 0.00 0.00 0.00 0.00 0.00 0.00 0.00 0.00 0.00 0.01 0.06 0.13 0.16 0.15 0.11 0.08 0.03
0.16 0.12 0.11 0.06 0.01 0.02 0.09 0.19 0.32 0.50 0.91 1.36 1.20 0.84 0.80 0.92 0.82 0.90 0.84 0.44 0.12 0.04 0.01 0.01 0.02 0.04 0.09 0.08 0.12 0.28 0.19 0.14 0.08 0.01 0.06 0.05 0.00 0.00 0.00 0.00 0.00 0.00 0.00 0.00 0.03 0.09 0.14 0.17 0.16 0.11 0.06 0.02 0.00 0.00
0.20 0.13 0.10 0.07 0.05 0.04 0.06 0.15 0.20 0.34 0.52 0.82 1.12 1.49 1.47 1.63 1.39 1.03 0.52 0.23 0.07 0.01 0.00 0.01 0.04 0.07 0.09 0.13 0.30 0.29 0.31 0.22 0.07 0.09 0.07 0.07 0.03 0.04 0.04 0.02 0.01 0.02 0.04 0.08 0.10 0.09 0.06 0.03 0.01 0.00 0.00 0.00 0.00 0.00
0.14 0.15 0.12 0.09 0.07 0.09 0.09 0.09 0.17 0.25 0.34 0.65 0.93 1.24 1.05 1.11 0.75 0.45 0.19 0.06 0.05 0.04 0.03 0.02 0.05 0.07 0.10 0.22 0.49 0.52 0.53 0.27 0.28 0.16 0.08 0.17 0.24 0.12 0.02 0.00 0.00 0.00 0.00 0.00 0.00 0.00 0.00 0.00 0.00 0.00 0.00 0.00 0.00 0.00
0.06 0.04 0.07 0.10 0.10 0.14 0.18 0.17 0.19 0.05 0.11 0.24 0.34 0.55 0.56 0.42 0.29 0.19 0.17 0.13 0.13 0.15 0.18 0.28 0.37 0.30 0.30 0.44 0.46 0.39 0.35 0.31 0.24 0.24 0.26 0.28 0.15 0.02 0.01 0.01 0.01 0.00 0.00 0.00 0.00 0.00 0.00 0.00 0.00 0.00 0.00 0.00 0.00 0.00
0.15 0.05 0.03 0.04 0.06 0.09 0.13 0.17 0.15 0.08 0.15 0.06 0.12 0.17 0.22 0.18 0.24 0.25 0.25 0.22 0.24 0.32 0.37 0.40 0.36 0.38 0.46 0.40 0.31 0.28 0.28 0.29 0.31 0.15 0.04 0.03 0.02 0.03 0.04 0.06 0.02 0.00 0.00 0.00 0.00 0.00 0.00 0.00 0.00 0.00 0.00 0.00 0.00 0.00
0.38 0.07 0.02 0.02 0.01 0.04 0.05 0.16 0.11 0.06 0.08 0.03 0.05 0.04 0.05 0.07 0.12 0.16 0.13 0.14 0.14 0.19 0.22 0.15 0.14 0.18 0.21 0.22 0.24 0.20 0.24 0.16 0.06 0.01 0.00 0.00 0.01 0.02 0.03 0.01 0.00 0.00 0.00 0.00 0.00 0.00 0.00 0.00 0.00 0.00 0.00 0.00 0.00 0.00
0.52 0.07 0.01 0.01 0.01 0.04 0.07 0.02 0.02 0.00 0.01 0.02 0.02 0.03 0.02 0.03 0.03 0.02 0.01 0.00 0.00 0.02 0.02 0.01 0.02 0.03 0.07 0.08 0.11 0.07 0.01 0.01 0.01 0.01 0.01 0.00 0.00 0.00 0.00 0.00 0.00 0.00 0.00 0.00 0.00 0.00 0.00 0.00 0.00 0.00 0.00 0.00 0.00 0.00
0.31 0.13 0.05 0.04 0.01 0.01 0.07 0.04 0.00 0.00 0.01 0.02 0.03 0.03 0.03 0.03 0.02 0.00 0.00 0.00 0.00 0.00 0.00 0.00 0.02 0.01 0.01 0.00 0.00 0.00 0.00 0.00 0.00 0.00 0.00 0.01 0.00 0.00 0.00 0.00 0.00 0.00 0.00 0.00 0.00 0.00 0.00 0.00 0.00 0.00 0.00 0.00 0.02 0.02
0.60 0.44 0.17 0.09 0.01 0.01 0.00 0.01 0.00 0.00 0.00 0.01 0.01 0.01 0.01 0.02 0.01 0.01 0.01 0.00 0.00 0.01 0.05 0.02 0.00 0.00 0.00 0.00 0.00 0.00 0.00 0.00 0.00 0.00 0.00 0.00 0.00 0.00 0.00 0.00 0.00 0.00 0.00 0.00 0.00 0.00 0.00 0.00 0.00 0.01 0.02 0.04 0.07 0.04
0.63 0.67 0.35 0.14 0.04 0.00 0.00 0.00 0.00 0.00 0.00 0.01 0.01 0.00 0.01 0.02 0.00 0.00 0.00 0.00 0.01 0.03 0.01 0.00 0.00 0.00 0.00 0.00 0.00 0.00 0.00 0.00 0.00 0.00 0.00 0.00 0.00 0.00 0.00 0.00 0.00 0.00 0.00 0.00 0.00 0.00 0.01 0.02 0.02 0.04 0.07 0.03 0.03 0.03
0.41 0.45 0.39 0.20 0.14 0.01 0.00 0.00 0.00 0.00 0.00 0.00 0.00 0.00 0.01 0.01 0.01 0.01 0.00 0.01 0.01 0.01 0.01 0.01 0.01 0.00 0.00 0.00 0.00 0.00 0.00 0.00 0.00 0.00 0.00 0.00 0.00 0.00 0.00 0.00 0.00 0.00 0.00 0.02 0.03 0.01 0.01 0.02 0.03 0.03 0.03 0.02 0.03 0.05
0.38 0.41 0.41 0.34 0.19 0.05 0.01 0.00 0.00 0.00 0.00 0.01 0.01 0.00 0.00 0.00 0.01 0.01 0.01 0.01 0.01 0.02 0.03 0.02 0.03 0.03 0.03 0.01 0.00 0.00 0.00 0.00 0.00 0.00 0.00 0.00 0.00 0.00 0.01 0.01 0.02 0.03 0.02 0.01 0.04 0.03 0.04 0.03 0.02 0.02 0.02 0.05 0.08 0.08
0.37 0.38 0.35 0.31 0.18 0.11 0.04 0.01 0.00 0.00 0.00 0.01 0.01 0.00 0.00 0.00 0.01 0.01 0.01 0.03 0.05 0.03 0.04 0.05 0.05 0.05 0.03 0.01 0.01 0.00 0.00 0.00 0.00 0.00 0.00 0.00 0.01 0.01 0.02 0.02 0.02 0.03 0.03 0.03 0.03 0.02 0.02 0.02 0.04 0.05 0.07 0.09 0.08 0.09
0.30 0.29 0.24 0.16 0.06 0.03 0.02 0.02 0.02 0.02 0.01 0.01 0.01 0.00 0.01 0.00 0.01 0.01 0.02 0.07 0.06 0.06 0.06 0.07 0.07 0.06 0.06 0.06 0.04 0.02 0.01 0.01 0.00 0.01 0.01 0.02 0.02 0.02 0.01 0.02 0.02 0.03 0.04 0.03 0.03 0.04 0.05 0.07 0.07 0.07 0.06 0.08 0.11 0.12
0.15 0.10 0.08 0.05 0.03 0.04 0.02 0.02 0.02 0.02 0.02 0.04 0.05 0.05 0.03 0.03 0.03 0.03 0.06 0.11 0.09 0.10 0.10 0.10 0.08 0.07 0.06 0.06 0.05 0.04 0.01 0.01 0.00 0.00 0.01 0.02 0.02 0.03 0.03 0.03 0.02 0.02 0.03 0.06 0.12 0.12 0.07 0.04 0.05 0.07 0.08 0.08 0.12 0.14
0.06 0.04 0.01 0.01 0.02 0.07 0.08 0.06 0.08 0.09 0.08 0.09 0.07 0.06 0.08 0.08 0.05 0.07 0.08 0.10 0.10 0.12 0.10 0.07 0.05 0.04 0.04 0.04 0.02 0.01 0.00 0.00 0.00 0.01 0.01 0.03 0.03 0.04 0.08 0.15 0.16 0.13 0.07 0.08 0.12 0.14 0.16 0.13 0.11 0.11 0.12 0.09 0.12 0.19
0.03 0.04 0.07 0.09 0.13 0.13 0.12 0.11 0.13 0.11 0.10 0.11 0.08 0.08 0.10 0.07 0.07 0.07 0.07 0.09 0.08 0.07 0.04 0.02 0.01 0.01 0.01 0.02 0.01 0.01 0.01 0.00 0.01 0.01 0.02 0.05 0.06 0.09 0.10 0.10 0.11 0.08 0.07 0.09 0.10 0.12 0.16 0.19 0.18 0.16 0.16 0.18 0.18 0.15
0.08 0.07 0.08 0.09 0.10 0.07 0.06 0.06 0.08 0.09 0.09 0.09 0.05 0.03 0.03 0.03 0.06 0.07 0.07 0.06 0.05 0.02 0.02 0.02 0.03 0.02 0.02 0.01 0.01 0.02 0.02 0.03 0.04 0.03 0.02 0.03 0.08 0.10 0.08 0.07 0.07 0.07 0.07 0.07 0.08 0.12 0.15 0.16 0.14 0.16 0.23 0.24 0.19 0.20
0.04 0.04 0.04 0.03 0.02 0.04 0.04 0.03 0.04 0.04 0.02 0.02 0.02 0.02 0.03 0.05 0.09 0.08 0.05 0.03 0.03 0.04 0.06 0.05 0.04 0.02 0.02 0.02 0.02 0.04 0.09 0.08 0.10 0.13 0.13 0.10 0.10 0.09 0.07 0.07 0.07 0.07 0.07 0.07 0.06 0.05 0.05 0.04 0.05 0.12 0.12 0.12 0.18 0.23
0.02 0.01 0.01 0.01 0.02 0.03 0.02 0.00 0.02 0.04 0.04 0.03 0.02 0.02 0.07 0.07 0.08 0.06 0.04 0.06 0.03 0.02 0.02 0.02 0.02 0.04 0.05 0.05 0.08 0.09 0.11 0.11 0.12 0.13 0.12 0.11 0.10 0.09 0.07 0.05 0.05 0.05 0.05 0.06 0.06 0.06 0.07 0.06 0.09 0.11 0.08 0.08 0.11 0.13
0.01 0.02 0.02 0.01 0.02 0.01 0.00 0.00 0.00 0.01 0.02 0.02 0.04 0.03 0.05 0.04 0.04 0.08 0.07 0.03 0.02 0.03 0.05 0.07 0.08 0.10 0.14 0.15 0.14 0.14 0.14 0.13 0.11 0.11 0.11 0.11 0.10 0.07 0.05 0.04 0.04 0.05 0.05 0.05 0.06 0.07 0.08 0.07 0.08 0.06 0.08 0.07 0.08 0.08
0.01 0.02 0.02 0.01 0.01 0.01 0.01 0.00 0.00 0.00 0.02 0.03 0.06 0.06 0.06 0.07 0.13 0.16 0.12 0.09 0.12 0.14 0.15 0.16 0.17 0.18 0.19 0.17 0.14 0.14 0.13 0.12 0.10 0.09 0.09 0.08 0.06 0.04 0.03 0.03 0.04 0.04 0.05 0.05 0.06 0.08 0.07 0.06 0.06 0.06 0.06 0.07 0.07 0.06

GFSWCAN_prec_precacc_039.txt.gz
Total_Precipitation_Accumulation
0.61 0.39 0.21 0.09 0.04 0.05 0.08 0.13 0.09 0.08 0.07 0.05 0.01 0.00 0.00 0.00 0.03 0.11 0.04 0.01 0.00 0.00 0.00 0.00 0.00 0.00 0.00 0.00 0.00 0.00 0.00 0.00 0.00 0.00 0.00 0.00 0.00 0.00 0.00 0.00 0.00 0.00 0.00 0.00 0.03 0.04 0.01 0.00 0.01 0.05 0.04 0.03 0.04 0.03
0.87 0.55 0.20 0.09 0.08 0.09 0.10 0.08 0.05 0.06 0.02 0.01 0.00 0.00 0.00 0.01 0.04 0.12 0.05 0.04 0.00 0.00 0.00 0.00 0.00 0.00 0.00 0.00 0.00 0.00 0.00 0.00 0.00 0.00 0.01 0.01 0.00 0.00 0.00 0.00 0.00 0.00 0.00 0.00 0.04 0.02 0.00 0.00 0.01 0.02 0.03 0.04 0.03 0.03
0.79 0.61 0.41 0.15 0.08 0.06 0.05 0.03 0.04 0.04 0.01 0.01 0.01 0.01 0.00 0.01 0.04 0.09 0.04 0.04 0.01 0.01 0.01 0.00 0.00 0.00 0.00 0.00 0.00 0.00 0.00 0.00 0.00 0.00 0.00 0.01 0.02 0.00 0.01 0.01 0.02 0.03 0.00 0.00 0.02 0.02 0.00 0.01 0.00 0.01 0.03 0.04 0.05 0.14
0.76 0.57 0.45 0.27 0.10 0.02 0.02 0.01 0.02 0.03 0.03 0.01 0.01 0.01 0.00 0.01 0.04 0.08 0.02 0.03 0.04 0.02 0.06 0.00 0.00 0.00 0.00 0.00 0.00 0.00 0.00 0.00 0.01 0.01 0.02 0.06 0.09 0.05 0.05 0.02 0.07 0.05 0.02 0.02 0.05 0.01 0.01 0.02 0.05 0.08 0.12 0.19 0.16 0.05
0.51 0.57 0.43 0.32 0.26 0.13 0.03 0.02 0.03 0.03 0.07 0.03 0.03 0.02 0.01 0.01 0.05 0.06 0.04 0.03 0.04 0.06 0.05 0.01 0.01 0.00 0.00 0.00 0.00 0.00 0.00 0.00 0.01 0.03 0.04 0.03 0.01 0.01 0.03 0.06 0.09 0.01 0.00 0.04 0.05 0.05 0.12 0.16 0.18 0.22 0.17 0.06 0.04 0.06
0.39 0.39 0.43 0.34 0.32 0.34 0.20 0.12 0.08 0.10 0.06 0.04 0.02 0.01 0.01 0.04 0.07 0.03 0.03 0.02 0.02 0.01 0.01 0.03 0.01 0.01 0.00 0.00 0.00 0.00 0.00 0.00 0.00 0.00 0.01 0.01 0.00 0.03 0.07 0.06 0.01 0.00 0.01 0.04 0.05 0.06 0.10 0.15 0.11 0.04 0.01 0.01 0.01 0.00
0.35 0.25 0.28 0.31 0.30 0.36 0.46 0.29 0.17 0.13 0.05 0.03 0.04 0.03 0.05 0.09 0.06 0.02 0.01 0.01 0.01 0.01 0.02 0.02 0.01 0.02 0.02 0.00 0.00 0.00 0.00 0.00 0.00 0.02 0.02 0.00 0.01 0.13 0.17 0.07 0.00 0.01 0.02 0.01 0.01 0.04 0.05 0.03 0.02 0.00 0.00 0.00 0.00 0.00
0.28 0.19 0.14 0.18 0.19 0.24 0.32 0.44 0.33 0.19 0.11 0.08 0.08 0.11 0.19 0.34 0.17 0.07 0.04 0.03 0.01 0.03 0.06 0.03 0.02 0.02 0.01 0.02 0.02 0.01 0.01 0.01 0.01 0.02 0.01 0.01 0.01 0.06 0.08 0.00 0.00 0.00 0.00 0.01 0.01 0.01 0.03 0.02 0.00 0.00 0.00 0.00 0.00 0.01
0.18 0.13 0.08 0.06 0.09 0.16 0.16 0.26 0.39 0.35 0.26 0.23 0.31 0.39 0.41 0.31 0.18 0.13 0.18 0.23 0.25 0.28 0.25 0.10 0.03 0.02 0.01 0.01 0.01 0.01 0.01 0.01 0.01 0.01 0.01 0.01 0.01 0.05 0.03 0.00 0.00 0.00 0.00 0.00 0.00 0.00 0.00 0.00 0.00 0.00 0.01 0.01 0.06 0.15
0.13 0.10 0.08 0.02 0.02 0.06 0.08 0.15 0.30 0.48 0.79 1.12 1.02 0.88 0.65 0.41 0.43 0.31 0.39 0.53 0.67 0.52 0.32 0.14 0.04 0.04 0.03 0.02 0.03 0.05 0.07 0.05 0.02 0.01 0.00 0.00 0.00 0.00 0.00 0.00 0.00 0.00 0.00 0.00 0.00 0.00 0.01 0.02 0.02 0.05 0.12 0.14 0.13 0.11
0.13 0.12 0.11 0.06 0.03 0.02 0.09 0.12 0.30 0.64 1.44 1.79 1.66 1.14 0.65 0.62 0.31 0.48 0.71 0.59 0.36 0.19 0.15 0.12 0.07 0.03 0.01 0.03 0.10 0.18 0.17 0.05 0.04 0.01 0.01 0.02 0.01 0.00 0.00 0.00 0.00 0.00 0.00 0.00 0.00 0.00 0.01 0.06 0.13 0.16 0.15 0.11 0.08 0.03
0.16 0.12 0.11 0.06 0.01 0.02 0.09 0.19 0.32 0.50 0.91 1.36 1.20 0.84 0.80 0.92 0.82 0.90 0.84 0.44 0.12 0.04 0.01 0.01 0.02 0.04 0.09 0.08 0.12 0.28 0.19 0.14 0.08 0.01 0.06 0.05 0.01 0.00 0.00 0.00 0.00 0.00 0.00 0.00 0.03 0.09 0.14 0.17 0.16 0.11 0.06 0.02 0.00 0.00
0.20 0.13 0.10 0.07 0.05 0.04 0.06 0.15 0.20 0.34 0.52 0.82 1.12 1.49 1.47 1.63 1.40 1.03 0.52 0.23 0.07 0.01 0.00 0.01 0.04 0.07 0.09 0.13 0.30 0.29 0.31 0.22 0.07 0.09 0.07 0.07 0.03 0.04 0.04 0.02 0.01 0.02 0.04 0.08 0.10 0.09 0.06 0.03 0.01 0.00 0.00 0.00 0.00 0.00
0.16 0.15 0.12 0.09 0.07 0.09 0.09 0.09 0.18 0.26 0.34 0.65 0.94 1.25 1.06 1.12 0.75 0.45 0.19 0.06 0.05 0.04 0.03 0.02 0.05 0.07 0.10 0.22 0.50 0.53 0.53 0.27 0.29 0.17 0.08 0.17 0.24 0.12 0.02 0.00 0.00 0.00 0.00 0.00 0.00 0.00 0.00 0.00 0.00 0.00 0.00 0.00 0.00 0.00
0.07 0.05 0.07 0.10 0.10 0.14 0.18 0.17 0.19 0.06 0.18 0.29 0.36 0.59 0.56 0.42 0.29 0.20 0.17 0.13 0.13 0.15 0.18 0.28 0.37 0.30 0.30 0.44 0.46 0.40 0.36 0.31 0.25 0.25 0.26 0.28 0.16 0.02 0.01 0.01 0.01 0.00 0.00 0.00 0.00 0.00 0.00 0.00 0.00 0.00 0.00 0.00 0.00 0.00
0.15 0.05 0.03 0.06 0.08 0.10 0.13 0.17 0.15 0.08 0.16 0.08 0.13 0.18 0.22 0.18 0.24 0.25 0.25 0.22 0.24 0.32 0.37 0.40 0.36 0.38 0.46 0.40 0.31 0.29 0.30 0.31 0.31 0.15 0.04 0.03 0.02 0.03 0.04 0.06 0.02 0.00 0.00 0.00 0.00 0.00 0.00 0.00 0.00 0.00 0.00 0.00 0.00 0.00
0.38 0.07 0.02 0.02 0.01 0.04 0.05 0.16 0.13 0.10 0.12 0.05 0.06 0.05 0.06 0.07 0.13 0.17 0.13 0.14 0.14 0.19 0.22 0.16 0.14 0.19 0.22 0.24 0.25 0.21 0.26 0.16 0.07 0.02 0.01 0.01 0.01 0.02 0.03 0.01 0.00 0.00 0.00 0.00 0.00 0.00 0.00 0.00 0.00 0.00 0.00 0.00 0.00 0.00
0.52 0.07 0.01 0.01 0.01 0.04 0.07 0.03 0.05 0.03 0.03 0.05 0.05 0.06 0.04 0.05 0.05 0.04 0.02 0.01 0.01 0.03 0.03 0.02 0.02 0.04 0.09 0.09 0.12 0.07 0.01 0.01 0.01 0.01 0.01 0.01 0.00 0.01 0.01 0.00 0.00 0.00 0.00 0.00 0.00 0.00 0.00 0.00 0.00 0.00 0.00 0.00 0.00 0.00
0.31 0.13 0.05 0.04 0.01 0.01 0.07 0.04 0.00 0.01 0.03 0.03 0.05 0.04 0.03 0.04 0.03 0.01 0.00 0.00 0.00 0.00 0.00 0.00 0.03 0.02 0.01 0.00 0.00 0.00 0.00 0.00 0.01 0.00 0.01 0.01 0.01 0.00 0.00 0.00 0.00 0.00 0.00 0.00 0.00 0.00 0.00 0.00 0.00 0.00 0.00 0.00 0.02 0.02
0.60 0.44 0.17 0.09 0.01 0.01 0.00 0.01 0.00 0.00 0.01 0.02 0.02 0.02 0.02 0.02 0.02 0.01 0.01 0.00 0.00 0.01 0.05 0.03 0.01 0.00 0.00 0.00 0.00 0.00 0.00 0.00 0.00 0.00 0.00 0.01 0.01 0.00 0.00 0.00 0.00 0.00 0.00 0.00 0.00 0.00 0.00 0.00 0.00 0.01 0.02 0.04 0.07 0.04
0.63 0.67 0.35 0.14 0.04 0.00 0.00 0.00 0.00 0.00 0.00 0.01 0.01 0.00 0.01 0.02 0.01 0.00 0.00 0.00 0.01 0.03 0.02 0.01 0.01 0.01 0.00 0.00 0.00 0.00 0.00 0.00 0.00 0.00 0.00 0.00 0.00 0.00 0.00 0.00 0.00 0.00 0.00 0.00 0.00 0.00 0.01 0.02 0.02 0.04 0.07 0.03 0.03 0.03
0.41 0.45 0.39 0.20 0.14 0.01 0.00 0.00 0.00 0.00 0.00 0.01 0.00 0.00 0.01 0.02 0.02 0.01 0.00 0.01 0.01 0.02 0.02 0.03 0.01 0.00 0.00 0.00 0.00 0.00 0.00 0.00 0.00 0.00 0.00 0.00 0.00 0.00 0.00 0.00 0.00 0.00 0.00 0.02 0.03 0.01 0.01 0.02 0.03 0.03 0.03 0.02 0.03 0.05
0.38 0.41 0.41 0.34 0.19 0.05 0.01 0.00 0.00 0.00 0.01 0.01 0.01 0.00 0.00 0.01 0.02 0.01 0.01 0.01 0.03 0.04 0.05 0.04 0.05 0.05 0.04 0.02 0.00 0.00 0.00 0.00 0.00 0.00 0.00 0.00 0.00 0.00 0.01 0.01 0.02 0.03 0.02 0.01 0.04 0.03 0.04 0.03 0.02 0.02 0.02 0.05 0.08 0.08
0.37 0.38 0.35 0.31 0.18 0.11 0.04 0.01 0.00 0.01 0.00 0.01 0.01 0.01 0.01 0.01 0.01 0.01 0.02 0.04 0.06 0.05 0.06 0.08 0.07 0.08 0.06 0.04 0.03 0.02 0.01 0.00 0.00 0.00 0.00 0.00 0.01 0.01 0.02 0.02 0.02 0.03 0.03 0.03 0.03 0.02 0.02 0.02 0.04 0.05 0.07 0.09 0.08 0.09
0.30 0.29 0.24 0.16 0.06 0.03 0.02 0.02 0.03 0.02 0.01 0.01 0.01 0.01 0.01 0.01 0.01 0.02 0.03 0.08 0.07 0.07 0.07 0.09 0.09 0.09 0.09 0.10 0.08 0.06 0.03 0.02 0.02 0.02 0.02 0.03 0.02 0.02 0.01 0.02 0.02 0.03 0.04 0.03 0.03 0.04 0.05 0.07 0.07 0.07 0.06 0.08 0.11 0.12
0.15 0.10 0.08 0.05 0.03 0.04 0.02 0.02 0.02 0.02 0.02 0.04 0.06 0.05 0.03 0.04 0.03 0.04 0.06 0.12 0.10 0.11 0.12 0.12 0.11 0.09 0.09 0.09 0.08 0.06 0.03 0.03 0.01 0.01 0.01 0.02 0.02 0.03 0.03 0.03 0.02 0.02 0.03 0.06 0.12 0.12 0.07 0.04 0.05 0.07 0.08 0.08 0.12 0.14
0.07 0.04 0.01 0.01 0.02 0.07 0.08 0.06 0.08 0.09 0.08 0.10 0.07 0.07 0.09 0.08 0.06 0.08 0.09 0.11 0.11 0.14 0.11 0.09 0.06 0.05 0.05 0.05 0.03 0.02 0.01 0.00 0.01 0.01 0.01 0.03 0.03 0.04 0.08 0.15 0.16 0.13 0.07 0.08 0.12 0.14 0.16 0.13 0.11 0.11 0.12 0.10 0.12 0.20
0.03 0.04 0.07 0.09 0.14 0.13 0.13 0.12 0.13 0.11 0.10 0.11 0.09 0.09 0.10 0.07 0.08 0.08 0.08 0.10 0.09 0.07 0.04 0.02 0.02 0.01 0.02 0.02 0.02 0.01 0.01 0.00 0.01 0.01 0.02 0.05 0.06 0.09 0.10 0.10 0.11 0.08 0.07 0.09 0.10 0.12 0.16 0.20 0.18 0.16 0.16 0.18 0.18 0.15
0.08 0.08 0.08 0.09 0.10 0.08 0.07 0.07 0.08 0.09 0.10 0.09 0.06 0.03 0.04 0.04 0.07 0.08 0.08 0.07 0.06 0.03 0.03 0.03 0.04 0.03 0.02 0.01 0.01 0.02 0.02 0.03 0.04 0.03 0.02 0.03 0.08 0.10 0.08 0.07 0.07 0.07 0.07 0.07 0.08 0.12 0.15 0.16 0.14 0.16 0.23 0.24 0.20 0.20
0.05 0.04 0.04 0.03 0.02 0.04 0.04 0.04 0.05 0.04 0.03 0.02 0.02 0.02 0.03 0.06 0.10 0.09 0.06 0.04 0.04 0.05 0.06 0.05 0.05 0.03 0.03 0.02 0.02 0.04 0.09 0.08 0.10 0.13 0.13 0.10 0.10 0.09 0.08 0.07 0.07 0.07 0.07 0.07 0.07 0.06 0.05 0.04 0.05 0.12 0.12 0.12 0.18 0.23
0.02 0.01 0.01 0.02 0.03 0.04 0.02 0.01 0.03 0.05 0.05 0.04 0.03 0.03 0.08 0.08 0.09 0.07 0.05 0.06 0.04 0.03 0.02 0.02 0.02 0.04 0.05 0.05 0.08 0.09 0.11 0.11 0.12 0.13 0.12 0.11 0.11 0.09 0.07 0.06 0.05 0.06 0.06 0.06 0.06 0.07 0.07 0.06 0.09 0.11 0.08 0.08 0.11 0.13
0.01 0.02 0.02 0.01 0.03 0.02 0.00 0.01 0.01 0.02 0.03 0.03 0.05 0.03 0.06 0.04 0.05 0.09 0.08 0.04 0.02 0.03 0.05 0.07 0.08 0.10 0.14 0.15 0.14 0.14 0.14 0.13 0.11 0.11 0.11 0.12 0.10 0.08 0.05 0.04 0.05 0.05 0.06 0.05 0.06 0.08 0.08 0.08 0.08 0.07 0.08 0.07 0.08 0.08
0.01 0.02 0.02 0.01 0.01 0.01 0.01 0.00 0.00 0.01 0.02 0.03 0.07 0.07 0.07 0.08 0.14 0.16 0.12 0.10 0.13 0.14 0.15 0.16 0.17 0.18 0.19 0.17 0.14 0.14 0.13 0.12 0.10 0.09 0.09 0.08 0.06 0.04 0.03 0.04 0.04 0.04 0.05 0.05 0.07 0.08 0.07 0.06 0.06 0.06 0.06 0.07 0.07 0.06

GFSWCAN_prec_precacc_042.txt.gz
Total_Precipitation_Accumulation
0.62 0.39 0.21 0.09 0.04 0.05 0.09 0.14 0.13 0.14 0.12 0.09 0.08 0.07 0.02 0.04 0.12 0.33 0.17 0.17 0.64 0.07 0.00 0.00 0.00 0.00 0.00 0.15 0.24 0.01 0.00 0.00 0.00 0.00 0.01 0.00 0.01 0.00 0.00 0.00 0.00 0.00 0.00 0.00 0.03 0.04 0.01 0.00 0.01 0.05 0.04 0.03 0.04 0.03
0.87 0.55 0.20 0.09 0.08 0.09 0.12 0.14 0.15 0.15 0.08 0.06 0.08 0.06 0.06 0.06 0.22 0.35 0.19 0.15 0.35 0.08 0.00 0.00 0.00 0.00 0.00 0.02 0.04 0.00 0.00 0.00 0.00 0.00 0.01 0.02 0.01 0.00 0.00 0.00 0.00 0.00 0.00 0.00 0.04 0.02 0.00 0.00 0.01 0.02 0.03 0.04 0.03 0.03
0.80 0.61 0.42 0.16 0.11 0.10 0.14 0.17 0.16 0.14 0.08 0.06 0.07 0.07 0.06 0.11 0.28 0.26 0.16 0.18 0.13 0.02 0.02 0.01 0.00 0.00 0.00 0.01 0.01 0.00 0.00 0.00 0.00 0.00 0.00 0.01 0.03 0.00 0.01 0.01 0.02 0.03 0.00 0.00 0.02 0.02 0.00 0.01 0.00 0.01 0.03 0.04 0.05 0.14
0.81 0.62 0.50 0.32 0.16 0.11 0.14 0.17 0.12 0.11 0.11 0.06 0.06 0.06 0.05 0.19 0.15 0.18 0.21 0.30 0.11 0.04 0.10 0.01 0.00 0.00 0.00 0.00 0.00 0.00 0.00 0.00 0.01 0.01 0.02 0.07 0.09 0.05 0.05 0.02 0.07 0.05 0.02 0.02 0.05 0.01 0.01 0.02 0.05 0.08 0.12 0.19 0.16 0.05
0.60 0.66 0.51 0.41 0.34 0.19 0.11 0.12 0.10 0.08 0.12 0.07 0.05 0.03 0.09 0.11 0.07 0.13 0.13 0.09 0.10 0.08 0.07 0.02 0.01 0.00 0.00 0.00 0.00 0.00 0.00 0.00 0.01 0.03 0.04 0.03 0.01 0.01 0.03 0.06 0.09 0.01 0.00 0.04 0.05 0.05 0.12 0.16 0.18 0.22 0.17 0.06 0.04 0.06
0.51 0.47 0.48 0.38 0.35 0.40 0.25 0.16 0.10 0.11 0.07 0.06 0.04 0.03 0.04 0.06 0.09 0.08 0.08 0.05 0.05 0.01 0.01 0.03 0.01 0.01 0.00 0.00 0.00 0.00 0.00 0.00 0.00 0.00 0.01 0.01 0.00 0.03 0.07 0.06 0.01 0.00 0.01 0.04 0.05 0.06 0.10 0.15 0.11 0.04 0.01 0.01 0.01 0.00
0.54 0.42 0.40 0.37 0.35 0.39 0.47 0.30 0.17 0.14 0.06 0.05 0.06 0.05 0.08 0.10 0.09 0.11 0.10 0.03 0.03 0.01 0.03 0.04 0.02 0.02 0.02 0.00 0.00 0.00 0.00 0.00 0.00 0.02 0.02 0.00 0.01 0.13 0.17 0.07 0.00 0.01 0.02 0.01 0.01 0.04 0.05 0.03 0.02 0.00 0.00 0.00 0.00 0.00
0.45 0.32 0.24 0.26 0.27 0.29 0.37 0.46 0.34 0.19 0.11 0.09 0.09 0.13 0.20 0.37 0.19 0.11 0.06 0.03 0.02 0.03 0.06 0.06 0.03 0.03 0.01 0.02 0.02 0.01 0.01 0.01 0.01 0.02 0.01 0.01 0.01 0.06 0.09 0.00 0.00 0.00 0.00 0.01 0.01 0.01 0.03 0.02 0.00 0.00 0.00 0.00 0.00 0.01
0.21 0.14 0.10 0.09 0.16 0.22 0.27 0.37 0.43 0.37 0.27 0.23 0.31 0.39 0.45 0.38 0.26 0.15 0.19 0.23 0.25 0.30 0.27 0.11 0.04 0.02 0.02 0.01 0.01 0.01 0.01 0.02 0.01 0.01 0.01 0.01 0.01 0.05 0.03 0.00 0.00 0.00 0.00 0.00 0.00 0.00 0.00 0.00 0.00 0.00 0.01 0.01 0.06 0.15
0.13 0.11 0.09 0.04 0.04 0.10 0.15 0.21 0.33 0.50 0.80 1.12 1.04 0.93 0.74 0.45 0.44 0.31 0.39 0.54 0.67 0.52 0.32 0.14 0.04 0.04 0.03 0.03 0.04 0.06 0.07 0.06 0.02 0.01 0.00 0.00 0.00 0.00 0.00 0.00 0.00 0.00 0.00 0.00 0.00 0.00 0.01 0.02 0.02 0.05 0.12 0.14 0.13 0.11
0.15 0.15 0.12 0.08 0.04 0.03 0.09 0.13 0.31 0.66 1.45 1.82 1.70 1.15 0.67 0.62 0.31 0.48 0.71 0.59 0.38 0.20 0.15 0.12 0.07 0.03 0.01 0.05 0.11 0.18 0.17 0.06 0.04 0.01 0.01 0.03 0.01 0.00 0.00 0.00 0.00 0.00 0.00 0.00 0.00 0.00 0.01 0.06 0.13 0.16 0.15 0.11 0.08 0.03
0.17 0.15 0.18 0.12 0.01 0.02 0.09 0.20 0.33 0.51 0.92 1.37 1.20 0.84 0.80 0.92 0.83 0.91 0.85 0.44 0.12 0.05 0.01 0.01 0.02 0.04 0.09 0.08 0.12 0.28 0.19 0.14 0.08 0.02 0.07 0.05 0.01 0.00 0.00 0.00 0.00 0.00 0.00 0.00 0.03 0.09 0.14 0.17 0.16 0.11 0.06 0.02 0.00 0.00
0.20 0.13 0.12 0.09 0.05 0.04 0.06 0.15 0.20 0.34 0.52 0.82 1.12 1.49 1.48 1.63 1.40 1.03 0.52 0.23 0.07 0.01 0.01 0.01 0.04 0.07 0.09 0.13 0.30 0.29 0.31 0.22 0.07 0.09 0.08 0.07 0.03 0.04 0.04 0.02 0.01 0.02 0.04 0.08 0.10 0.09 0.06 0.03 0.01 0.00 0.00 0.00 0.00 0.00
0.16 0.15 0.12 0.09 0.07 0.10 0.09 0.10 0.18 0.26 0.34 0.65 0.94 1.25 1.06 1.12 0.76 0.45 0.19 0.06 0.05 0.04 0.03 0.02 0.05 0.07 0.10 0.23 0.50 0.53 0.53 0.27 0.29 0.17 0.09 0.17 0.24 0.13 0.02 0.00 0.00 0.00 0.00 0.00 0.00 0.00 0.00 0.00 0.00 0.00 0.00 0.00 0.00 0.00
0.07 0.05 0.07 0.10 0.10 0.14 0.18 0.17 0.19 0.07 0.21 0.31 0.36 0.59 0.56 0.42 0.29 0.20 0.17 0.13 0.13 0.15 0.18 0.28 0.37 0.31 0.31 0.44 0.46 0.40 0.36 0.31 0.25 0.25 0.26 0.29 0.16 0.02 0.01 0.01 0.01 0.00 0.00 0.00 0.00 0.00 0.00 0.00 0.00 0.00 0.00 0.00 0.00 0.00
0.15 0.05 0.03 0.06 0.08 0.10 0.13 0.17 0.15 0.09 0.24 0.17 0.19 0.18 0.22 0.18 0.24 0.26 0.25 0.23 0.24 0.32 0.37 0.40 0.36 0.38 0.46 0.41 0.31 0.29 0.30 0.31 0.31 0.15 0.04 0.03 0.03 0.04 0.04 0.06 0.02 0.00 0.00 0.00 0.00 0.00 0.00 0.00 0.00 0.00 0.00 0.00 0.00 0.00
0.38 0.07 0.02 0.02 0.01 0.04 0.05 0.16 0.13 0.11 0.15 0.08 0.12 0.12 0.08 0.09 0.14 0.17 0.13 0.14 0.14 0.19 0.22 0.16 0.14 0.19 0.22 0.24 0.26 0.22 0.27 0.17 0.07 0.03 0.02 0.02 0.02 0.02 0.03 0.01 0.00 0.00 0.00 0.00 0.00 0.00 0.00 0.00 0.00 0.00 0.00 0.00 0.00 0.00
0.52 0.07 0.01 0.01 0.01 0.04 0.07 0.04 0.07 0.03 0.03 0.06 0.07 0.10 0.08 0.10 0.08 0.06 0.04 0.02 0.01 0.03 0.03 0.02 0.03 0.06 0.11 0.12 0.14 0.08 0.03 0.03 0.03 0.03 0.02 0.02 0.01 0.01 0.01 0.00 0.00 0.00 0.00 0.00 0.00 0.00 0.00 0.00 0.00 0.00 0.00 0.00 0.00 0.00
0.31 0.13 0.05 0.04 0.01 0.01 0.07 0.04 0.02 0.04 0.06 0.06 0.09 0.08 0.07 0.08 0.07 0.04 0.03 0.02 0.02 0.02 0.02 0.03 0.06 0.06 0.05 0.04 0.04 0.02 0.01 0.01 0.01 0.01 0.01 0.02 0.02 0.02 0.01 0.00 0.00 0.00 0.00 0.00 0.00 0.00 0.00 0.00 0.00 0.00 0.00 0.00 0.02 0.02
0.60 0.44 0.17 0.09 0.01 0.01 0.00 0.01 0.00 0.01 0.03 0.04 0.05 0.05 0.03 0.04 0.03 0.02 0.01 0.00 0.00 0.01 0.06 0.06 0.06 0.06 0.05 0.04 0.03 0.01 0.01 0.00 0.00 0.00 0.01 0.02 0.02 0.01 0.00 0.00 0.00 0.00 0.00 0.00 0.00 0.00 0.00 0.00 0.00 0.01 0.02 0.04 0.07 0.04
0.63 0.67 0.35 0.14 0.04 0.00 0.00 0.00 0.00 0.00 0.01 0.02 0.02 0.01 0.02 0.02 0.01 0.01 0.01 0.00 0.01 0.04 0.04 0.04 0.04 0.03 0.01 0.01 0.01 0.00 0.00 0.00 0.00 0.00 0.00 0.00 0.00 0.00 0.00 0.00 0.00 0.00 0.00 0.00 0.00 0.00 0.01 0.02 0.02 0.04 0.07 0.03 0.03 0.03
0.41 0.45 0.39 0.20 0.14 0.01 0.00 0.00 0.00 0.00 0.00 0.01 0.00 0.00 0.02 0.03 0.02 0.02 0.00 0.01 0.02 0.04 0.05 0.07 0.05 0.02 0.01 0.02 0.02 0.02 0.02 0.01 0.01 0.01 0.01 0.00 0.00 0.00 0.00 0.00 0.00 0.00 0.00 0.02 0.03 0.01 0.01 0.02 0.03 0.03 0.03 0.02 0.03 0.05
0.38 0.41 0.41 0.34 0.19 0.05 0.01 0.00 0.00 0.00 0.01 0.01 0.01 0.01 0.01 0.02 0.02 0.01 0.02 0.02 0.05 0.07 0.07 0.06 0.07 0.06 0.05 0.02 0.00 0.00 0.00 0.01 0.01 0.02 0.02 0.01 0.01 0.00 0.01 0.01 0.02 0.03 0.02 0.01 0.04 0.03 0.04 0.03 0.02 0.02 0.02 0.05 0.08 0.08
0.37 0.38 0.35 0.31 0.18 0.11 0.04 0.02 0.00 0.01 0.01 0.02 0.01 0.01 0.02 0.02 0.01 0.02 0.03 0.06 0.09 0.07 0.08 0.10 0.09 0.10 0.07 0.05 0.04 0.03 0.03 0.01 0.01 0.01 0.01 0.01 0.01 0.01 0.02 0.02 0.02 0.03 0.03 0.03 0.03 0.02 0.02 0.02 0.04 0.05 0.07 0.09 0.08 0.10
0.30 0.29 0.24 0.16 0.06 0.03 0.02 0.02 0.03 0.02 0.02 0.02 0.02 0.02 0.01 0.01 0.02 0.02 0.04 0.11 0.09 0.08 0.09 0.11 0.10 0.10 0.11 0.12 0.11 0.08 0.06 0.04 0.03 0.03 0.03 0.03 0.03 0.02 0.01 0.02 0.02 0.03 0.04 0.03 0.03 0.04 0.05 0.07 0.07 0.07 0.06 0.08 0.11 0.12
0.16 0.10 0.09 0.05 0.03 0.04 0.02 0.02 0.03 0.03 0.02 0.05 0.06 0.05 0.03 0.05 0.04 0.05 0.08 0.15 0.12 0.13 0.13 0.14 0.14 0.10 0.10 0.10 0.09 0.08 0.05 0.04 0.02 0.01 0.02 0.02 0.03 0.04 0.03 0.03 0.02 0.02 0.03 0.06 0.12 0.12 0.07 0.04 0.05 0.07 0.08 0.09 0.12 0.15
0.07 0.04 0.01 0.01 0.03 0.07 0.08 0.06 0.09 0.09 0.09 0.11 0.08 0.08 0.10 0.10 0.06 0.09 0.10 0.12 0.13 0.15 0.12 0.09 0.07 0.05 0.06 0.06 0.04 0.03 0.01 0.01 0.01 0.01 0.01 0.03 0.03 0.04 0.08 0.15 0.16 0.13 0.07 0.08 0.12 0.15 0.16 0.13 0.12 0.11 0.12 0.10 0.12 0.20
0.03 0.04 0.07 0.10 0.14 0.13 0.13 0.12 0.14 0.12 0.11 0.11 0.10 0.10 0.11 0.09 0.09 0.09 0.10 0.12 0.10 0.08 0.05 0.03 0.02 0.01 0.02 0.03 0.03 0.02 0.01 0.00 0.01 0.01 0.02 0.05 0.06 0.09 0.10 0.10 0.11 0.08 0.07 0.09 0.11 0.12 0.16 0.20 0.19 0.16 0.17 0.19 0.18 0.15
0.08 0.08 0.08 0.09 0.10 0.08 0.07 0.08 0.09 0.10 0.10 0.09 0.07 0.04 0.04 0.04 0.09 0.10 0.10 0.09 0.07 0.05 0.04 0.04 0.05 0.04 0.03 0.02 0.01 0.03 0.03 0.03 0.04 0.03 0.02 0.03 0.08 0.11 0.08 0.07 0.07 0.07 0.07 0.07 0.08 0.13 0.15 0.16 0.15 0.16 0.23 0.24 0.20 0.21
0.05 0.04 0.04 0.03 0.03 0.05 0.06 0.05 0.07 0.05 0.03 0.02 0.02 0.02 0.04 0.07 0.12 0.10 0.07 0.05 0.05 0.06 0.08 0.06 0.06 0.03 0.03 0.03 0.02 0.04 0.10 0.08 0.10 0.13 0.13 0.10 0.10 0.10 0.08 0.08 0.07 0.08 0.08 0.08 0.07 0.06 0.06 0.04 0.05 0.12 0.13 0.13 0.19 0.24
0.02 0.02 0.01 0.02 0.03 0.05 0.03 0.01 0.04 0.06 0.05 0.04 0.04 0.04 0.09 0.09 0.11 0.08 0.06 0.08 0.05 0.03 0.03 0.03 0.03 0.04 0.05 0.05 0.08 0.09 0.12 0.11 0.12 0.13 0.12 0.11 0.11 0.09 0.08 0.06 0.06 0.06 0.06 0.06 0.06 0.07 0.08 0.07 0.09 0.11 0.09 0.09 0.12 0.13
0.02 0.02 0.02 0.01 0.04 0.02 0.00 0.01 0.02 0.04 0.05 0.04 0.06 0.04 0.07 0.06 0.06 0.10 0.08 0.06 0.03 0.03 0.05 0.08 0.09 0.11 0.14 0.16 0.15 0.14 0.14 0.13 0.11 0.11 0.11 0.12 0.10 0.08 0.05 0.04 0.05 0.06 0.06 0.06 0.07 0.08 0.08 0.08 0.08 0.07 0.09 0.08 0.08 0.08
0.02 0.02 0.02 0.02 0.01 0.02 0.01 0.01 0.00 0.01 0.03 0.04 0.07 0.07 0.08 0.08 0.15 0.17 0.13 0.10 0.14 0.15 0.15 0.16 0.17 0.18 0.20 0.17 0.14 0.14 0.13 0.12 0.10 0.09 0.10 0.09 0.06 0.04 0.03 0.04 0.04 0.05 0.05 0.05 0.07 0.08 0.07 0.06 0.06 0.07 0.06 0.07 0.07 0.06

GFSWCAN_prec_precacc_048.txt.gz
Total_Precipitation_Accumulation
0.64 0.41 0.22 0.10 0.05 0.05 0.09 0.15 0.16 0.21 0.18 0.16 0.19 0.22 0.06 0.06 0.15 0.35 0.19 0.28 0.92 0.26 0.05 0.03 0.01 0.00 0.01 0.17 0.36 0.14 0.14 0.14 0.13 0.10 0.04 0.01 0.01 0.00 0.00 0.00 0.00 0.00 0.00 0.00 0.03 0.04 0.01 0.00 0.01 0.05 0.04 0.03 0.04 0.03
0.89 0.56 0.21 0.10 0.08 0.10 0.12 0.15 0.16 0.21 0.13 0.12 0.16 0.19 0.09 0.08 0.23 0.39 0.26 0.23 0.89 0.63 0.18 0.05 0.04 0.00 0.00 0.06 0.27 0.05 0.07 0.07 0.05 0.04 0.03 0.03 0.01 0.00 0.00 0.00 0.00 0.00 0.00 0.00 0.04 0.02 0.00 0.00 0.01 0.02 0.03 0.04 0.03 0.03
0.82 0.62 0.43 0.17 0.11 0.11 0.14 0.18 0.17 0.20 0.15 0.13 0.13 0.12 0.08 0.13 0.32 0.35 0.29 0.36 1.20 1.06 0.46 0.11 0.06 0.04 0.05 0.05 0.13 0.10 0.02 0.02 0.02 0.07 0.05 0.03 0.03 0.00 0.01 0.01 0.02 0.03 0.00 0.00 0.02 0.02 0.00 0.01 0.00 0.01 0.03 0.04 0.05 0.14
0.83 0.63 0.51 0.33 0.17 0.11 0.15 0.19 0.15 0.15 0.15 0.09 0.09 0.09 0.08 0.33 0.27 0.34 0.50 0.64 0.99 1.02 0.82 0.24 0.09 0.06 0.05 0.03 0.04 0.05 0.03 0.01 0.02 0.03 0.06 0.11 0.10 0.05 0.05 0.02 0.07 0.05 0.02 0.02 0.05 0.01 0.01 0.02 0.05 0.08 0.12 0.19 0.16 0.05
0.62 0.67 0.53 0.42 0.35 0.21 0.15 0.18 0.14 0.12 0.16 0.09 0.09 0.09 0.32 0.35 0.25 0.54 0.71 0.83 0.80 0.80 0.78 0.42 0.24 0.08 0.06 0.05 0.04 0.03 0.06 0.05 0.03 0.04 0.05 0.04 0.01 0.01 0.03 0.06 0.09 0.01 0.00 0.04 0.05 0.05 0.12 0.16 0.18 0.22 0.17 0.06 0.04 0.06
0.54 0.50 0.51 0.41 0.38 0.43 0.31 0.27 0.20 0.17 0.11 0.10 0.10 0.26 0.39 0.38 0.52 0.72 0.67 0.46 0.85 0.66 0.51 0.70 0.38 0.26 0.14 0.17 0.09 0.13 0.12 0.11 0.07 0.02 0.01 0.01 0.00 0.03 0.07 0.06 0.01 0.00 0.01 0.04 0.05 0.06 0.10 0.15 0.11 0.04 0.01 0.01 0.01 0.00
0.67 0.52 0.47 0.41 0.39 0.47 0.60 0.45 0.29 0.17 0.09 0.11 0.20 0.36 0.51 0.49 0.47 0.55 0.52 0.52 0.73 0.60 0.47 0.42 0.57 0.32 0.39 0.17 0.27 0.09 0.13 0.11 0.12 0.05 0.02 0.00 0.01 0.13 0.17 0.07 0.00 0.01 0.02 0.01 0.01 0.04 0.05 0.03 0.02 0.00 0.00 0.00 0.00 0.00
0.68 0.49 0.35 0.34 0.36 0.39 0.48 0.57 0.43 0.22 0.15 0.18 0.31 0.56 0.60 0.73 0.59 0.47 0.30 0.39 0.70 0.71 0.47 0.26 0.30 0.25 0.23 0.12 0.16 0.15 0.05 0.07 0.07 0.07 0.03 0.01 0.01 0.06 0.09 0.00 0.00 0.00 0.00 0.01 0.01 0.01 0.03 0.02 0.00 0.00 0.00 0.00 0.00 0.01
0.37 0.27 0.21 0.20 0.26 0.32 0.36 0.45 0.48 0.42 0.35 0.43 0.73 0.95 1.08 1.00 0.79 0.56 0.40 0.46 0.75 0.82 0.56 0.20 0.13 0.10 0.05 0.02 0.03 0.08 0.05 0.05 0.02 0.03 0.02 0.01 0.01 0.05 0.03 0.00 0.00 0.00 0.00 0.00 0.00 0.00 0.00 0.00 0.00 0.00 0.01 0.01 0.06 0.15
0.22 0.20 0.18 0.14 0.16 0.21 0.24 0.30 0.42 0.61 1.01 1.55 1.68 1.67 1.47 0.96 0.74 0.58 0.63 0.68 0.74 0.56 0.33 0.15 0.05 0.05 0.03 0.03 0.05 0.07 0.10 0.07 0.03 0.01 0.01 0.01 0.00 0.00 0.00 0.00 0.00 0.00 0.00 0.00 0.00 0.00 0.01 0.02 0.02 0.05 0.12 0.14 0.13 0.11
0.20 0.19 0.17 0.13 0.09 0.10 0.18 0.24 0.44 0.84 1.79 2.33 2.38 1.79 1.02 0.82 0.50 0.67 0.82 0.63 0.39 0.20 0.15 0.12 0.07 0.04 0.02 0.07 0.15 0.21 0.20 0.07 0.04 0.01 0.01 0.03 0.01 0.00 0.01 0.01 0.00 0.00 0.00 0.00 0.00 0.00 0.01 0.06 0.13 0.16 0.15 0.11 0.08 0.03
0.25 0.20 0.23 0.16 0.03 0.04 0.13 0.25 0.41 0.65 1.15 1.60 1.45 0.97 0.91 0.98 0.86 0.91 0.85 0.44 0.12 0.05 0.01 0.01 0.03 0.04 0.09 0.09 0.15 0.31 0.23 0.16 0.09 0.02 0.07 0.06 0.01 0.01 0.01 0.01 0.00 0.00 0.00 0.00 0.03 0.09 0.14 0.17 0.16 0.11 0.06 0.02 0.00 0.00
0.24 0.19 0.18 0.14 0.08 0.07 0.10 0.21 0.28 0.39 0.56 0.86 1.13 1.50 1.51 1.65 1.40 1.03 0.52 0.23 0.07 0.01 0.01 0.01 0.04 0.07 0.10 0.13 0.31 0.31 0.32 0.23 0.07 0.09 0.08 0.07 0.03 0.04 0.04 0.02 0.01 0.02 0.04 0.08 0.10 0.09 0.06 0.03 0.01 0.00 0.00 0.00 0.00 0.00
0.19 0.18 0.14 0.12 0.14 0.18 0.14 0.12 0.18 0.26 0.35 0.66 0.94 1.25 1.07 1.12 0.76 0.45 0.19 0.06 0.05 0.05 0.03 0.02 0.05 0.07 0.11 0.23 0.50 0.53 0.53 0.27 0.29 0.17 0.09 0.17 0.24 0.13 0.02 0.00 0.00 0.00 0.00 0.00 0.00 0.00 0.00 0.00 0.00 0.00 0.00 0.00 0.00 0.00
0.07 0.05 0.07 0.11 0.11 0.15 0.19 0.17 0.19 0.07 0.21 0.31 0.36 0.59 0.57 0.43 0.31 0.21 0.18 0.14 0.13 0.16 0.18 0.28 0.37 0.31 0.31 0.44 0.46 0.40 0.36 0.31 0.25 0.25 0.26 0.29 0.16 0.02 0.01 0.01 0.01 0.00 0.00 0.00 0.00 0.00 0.00 0.00 0.00 0.00 0.00 0.00 0.00 0.00
0.15 0.05 0.03 0.06 0.08 0.10 0.13 0.17 0.15 0.12 0.28 0.20 0.21 0.19 0.23 0.19 0.26 0.27 0.26 0.23 0.25 0.32 0.37 0.40 0.36 0.38 0.46 0.41 0.31 0.29 0.30 0.31 0.31 0.15 0.04 0.03 0.03 0.04 0.04 0.06 0.02 0.00 0.00 0.00 0.00 0.00 0.00 0.00 0.00 0.00 0.00 0.00 0.00 0.00
0.38 0.07 0.02 0.02 0.01 0.04 0.05 0.16 0.16 0.22 0.29 0.17 0.22 0.19 0.13 0.11 0.16 0.20 0.16 0.15 0.14 0.19 0.22 0.16 0.15 0.19 0.22 0.24 0.26 0.22 0.28 0.18 0.08 0.03 0.02 0.03 0.02 0.03 0.05 0.02 0.01 0.02 0.01 0.00 0.00 0.00 0.00 0.00 0.00 0.00 0.00 0.00 0.00 0.00
0.52 0.07 0.01 0.01 0.01 0.04 0.07 0.04 0.09 0.07 0.09 0.16 0.18 0.27 0.22 0.28 0.22 0.17 0.13 0.07 0.05 0.07 0.07 0.08 0.08 0.10 0.15 0.15 0.17 0.11 0.06 0.07 0.08 0.09 0.09 0.07 0.03 0.03 0.02 0.01 0.02 0.01 0.00 0.00 0.00 0.00 0.00 0.00 0.00 0.00 0.00 0.00 0.00 0.00
0.31 0.13 0.05 0.04 0.01 0.01 0.07 0.04 0.02 0.06 0.15 0.19 0.24 0.23 0.18 0.22 0.21 0.20 0.16 0.13 0.11 0.09 0.09 0.12 0.15 0.15 0.16 0.18 0.18 0.14 0.12 0.09 0.10 0.12 0.14 0.12 0.07 0.04 0.03 0.03 0.04 0.02 0.00 0.00 0.00 0.00 0.00 0.00 0.00 0.00 0.00 0.00 0.02 0.02
0.60 0.44 0.17 0.09 0.01 0.01 0.00 0.01 0.00 0.02 0.10 0.14 0.18 0.16 0.12 0.16 0.12 0.07 0.05 0.04 0.03 0.04 0.11 0.14 0.20 0.23 0.25 0.26 0.20 0.13 0.09 0.07 0.04 0.06 0.12 0.15 0.11 0.06 0.05 0.03 0.01 0.00 0.00 0.00 0.00 0.00 0.00 0.00 0.00 0.01 0.02 0.04 0.07 0.04
0.63 0.67 0.35 0.14 0.04 0.00 0.00 0.00 0.01 0.02 0.04 0.07 0.08 0.03 0.07 0.06 0.03 0.02 0.01 0.00 0.02 0.09 0.17 0.22 0.22 0.25 0.26 0.22 0.16 0.08 0.06 0.03 0.03 0.01 0.02 0.06 0.06 0.02 0.02 0.02 0.01 0.00 0.00 0.00 0.00 0.00 0.01 0.02 0.02 0.04 0.07 0.03 0.03 0.03
0.41 0.45 0.39 0.20 0.14 0.01 0.00 0.00 0.01 0.00 0.01 0.03 0.01 0.01 0.04 0.05 0.04 0.02 0.00 0.01 0.07 0.15 0.16 0.20 0.16 0.13 0.13 0.14 0.16 0.12 0.11 0.03 0.02 0.02 0.02 0.02 0.03 0.03 0.04 0.04 0.01 0.03 0.03 0.05 0.04 0.02 0.01 0.02 0.03 0.03 0.03 0.02 0.03 0.05
0.38 0.41 0.41 0.34 0.19 0.05 0.01 0.00 0.00 0.01 0.01 0.02 0.02 0.01 0.02 0.03 0.05 0.01 0.03 0.05 0.14 0.21 0.16 0.13 0.13 0.10 0.10 0.09 0.05 0.06 0.09 0.07 0.07 0.08 0.07 0.06 0.06 0.07 0.06 0.07 0.07 0.07 0.06 0.04 0.05 0.04 0.04 0.03 0.02 0.02 0.02 0.05 0.08 0.08
0.37 0.38 0.35 0.31 0.18 0.11 0.04 0.02 0.01 0.01 0.01 0.02 0.02 0.02 0.02 0.03 0.02 0.02 0.05 0.11 0.17 0.12 0.11 0.17 0.15 0.13 0.08 0.06 0.07 0.09 0.11 0.04 0.05 0.06 0.07 0.04 0.04 0.06 0.05 0.05 0.05 0.05 0.05 0.04 0.03 0.02 0.02 0.02 0.04 0.05 0.07 0.09 0.08 0.10
0.30 0.29 0.24 0.16 0.06 0.03 0.02 0.03 0.03 0.03 0.02 0.02 0.03 0.02 0.02 0.02 0.02 0.03 0.06 0.16 0.11 0.10 0.12 0.13 0.11 0.11 0.12 0.14 0.13 0.11 0.09 0.07 0.05 0.05 0.08 0.07 0.06 0.05 0.04 0.04 0.04 0.04 0.04 0.03 0.03 0.04 0.05 0.07 0.07 0.07 0.06 0.08 0.11 0.12
0.16 0.10 0.09 0.06 0.04 0.04 0.03 0.03 0.03 0.04 0.03 0.05 0.07 0.06 0.04 0.06 0.04 0.07 0.11 0.20 0.14 0.15 0.16 0.17 0.16 0.11 0.11 0.11 0.11 0.10 0.08 0.08 0.03 0.03 0.05 0.05 0.06 0.06 0.05 0.05 0.04 0.03 0.03 0.06 0.12 0.12 0.07 0.04 0.05 0.07 0.08 0.09 0.13 0.15
0.08 0.05 0.02 0.02 0.04 0.08 0.09 0.07 0.09 0.10 0.10 0.12 0.10 0.09 0.14 0.11 0.08 0.13 0.14 0.14 0.15 0.17 0.14 0.11 0.07 0.06 0.08 0.08 0.05 0.04 0.02 0.01 0.01 0.02 0.02 0.03 0.03 0.04 0.08 0.15 0.16 0.13 0.07 0.08 0.12 0.15 0.16 0.13 0.12 0.11 0.12 0.10 0.13 0.20
0.04 0.05 0.09 0.10 0.14 0.14 0.14 0.13 0.15 0.14 0.12 0.12 0.13 0.10 0.12 0.10 0.13 0.14 0.15 0.18 0.15 0.09 0.05 0.03 0.02 0.02 0.03 0.04 0.04 0.03 0.02 0.01 0.01 0.01 0.02 0.05 0.06 0.09 0.10 0.10 0.11 0.08 0.07 0.09 0.11 0.12 0.17 0.20 0.19 0.16 0.17 0.19 0.18 0.15
0.09 0.08 0.08 0.09 0.10 0.08 0.08 0.09 0.11 0.12 0.11 0.11 0.09 0.05 0.06 0.07 0.15 0.16 0.16 0.12 0.10 0.06 0.05 0.05 0.08 0.06 0.04 0.02 0.01 0.03 0.03 0.04 0.04 0.03 0.02 0.04 0.09 0.11 0.08 0.08 0.08 0.07 0.08 0.08 0.08 0.13 0.16 0.17 0.16 0.17 0.23 0.24 0.20 0.22
0.05 0.05 0.04 0.04 0.03 0.06 0.08 0.06 0.08 0.06 0.03 0.03 0.03 0.03 0.05 0.11 0.16 0.13 0.09 0.07 0.07 0.08 0.09 0.07 0.07 0.04 0.05 0.04 0.03 0.04 0.10 0.08 0.10 0.13 0.13 0.10 0.10 0.10 0.08 0.09 0.08 0.08 0.08 0.08 0.07 0.06 0.06 0.04 0.05 0.12 0.13 0.13 0.20 0.24
0.02 0.02 0.02 0.02 0.04 0.06 0.05 0.04 0.06 0.06 0.06 0.04 0.04 0.04 0.10 0.11 0.12 0.09 0.07 0.11 0.06 0.05 0.04 0.03 0.03 0.04 0.05 0.06 0.08 0.09 0.13 0.12 0.12 0.13 0.12 0.11 0.11 0.10 0.08 0.07 0.06 0.06 0.06 0.07 0.07 0.07 0.08 0.07 0.09 0.12 0.09 0.09 0.12 0.13
0.02 0.02 0.02 0.02 0.05 0.02 0.02 0.05 0.07 0.09 0.07 0.05 0.07 0.05 0.09 0.07 0.07 0.10 0.09 0.07 0.04 0.04 0.06 0.08 0.09 0.12 0.14 0.16 0.15 0.14 0.14 0.13 0.11 0.11 0.12 0.12 0.10 0.08 0.05 0.04 0.05 0.06 0.07 0.06 0.07 0.08 0.09 0.08 0.09 0.07 0.09 0.08 0.08 0.08
0.02 0.02 0.02 0.02 0.02 0.03 0.02 0.01 0.01 0.02 0.04 0.05 0.08 0.08 0.09 0.09 0.15 0.19 0.15 0.11 0.14 0.15 0.16 0.17 0.18 0.20 0.21 0.17 0.14 0.14 0.13 0.12 0.10 0.09 0.10 0.09 0.06 0.04 0.03 0.04 0.04 0.05 0.06 0.06 0.07 0.08 0.08 0.07 0.07 0.07 0.07 0.07 0.07 0.07

GFSWCAN_prec_precacc_051.txt.gz
Total_Precipitation_Accumulation
0.72 0.50 0.30 0.16 0.08 0.07 0.10 0.16 0.16 0.22 0.18 0.16 0.20 0.22 0.07 0.08 0.21 0.45 0.28 0.33 0.97 0.32 0.07 0.05 0.03 0.00 0.01 0.17 0.36 0.14 0.14 0.14 0.15 0.15 0.08 0.03 0.01 0.00 0.00 0.00 0.00 0.00 0.00 0.00 0.03 0.04 0.01 0.00 0.01 0.05 0.04 0.03 0.04 0.03
0.93 0.60 0.23 0.11 0.09 0.11 0.13 0.16 0.17 0.22 0.14 0.12 0.17 0.21 0.11 0.11 0.31 0.44 0.35 0.26 0.93 0.67 0.22 0.07 0.04 0.00 0.00 0.06 0.27 0.05 0.07 0.07 0.06 0.07 0.05 0.05 0.01 0.00 0.00 0.00 0.00 0.00 0.00 0.00 0.04 0.02 0.00 0.00 0.01 0.02 0.03 0.04 0.03 0.03
0.82 0.63 0.43 0.17 0.12 0.12 0.16 0.19 0.18 0.22 0.16 0.15 0.21 0.24 0.11 0.18 0.38 0.38 0.33 0.37 1.23 1.11 0.47 0.12 0.07 0.05 0.05 0.05 0.13 0.10 0.02 0.02 0.05 0.11 0.10 0.07 0.04 0.01 0.01 0.01 0.02 0.03 0.00 0.00 0.02 0.02 0.00 0.01 0.00 0.01 0.03 0.04 0.05 0.14
0.83 0.64 0.51 0.34 0.18 0.12 0.16 0.20 0.17 0.21 0.23 0.19 0.31 0.21 0.12 0.41 0.35 0.38 0.51 0.65 1.00 1.07 0.90 0.28 0.10 0.08 0.06 0.04 0.04 0.05 0.04 0.02 0.04 0.09 0.14 0.15 0.15 0.08 0.06 0.02 0.07 0.05 0.02 0.02 0.05 0.01 0.01 0.02 0.05 0.08 0.12 0.19 0.16 0.05
0.63 0.68 0.53 0.43 0.36 0.22 0.16 0.19 0.19 0.22 0.29 0.24 0.42 0.15 0.36 0.46 0.34 0.55 0.71 0.84 0.81 0.82 0.84 0.48 0.25 0.10 0.11 0.07 0.05 0.04 0.07 0.06 0.05 0.08 0.09 0.04 0.02 0.04 0.05 0.07 0.09 0.01 0.00 0.04 0.05 0.05 0.12 0.16 0.18 0.22 0.17 0.06 0.04 0.06
0.54 0.50 0.52 0.42 0.39 0.44 0.32 0.30 0.27 0.25 0.19 0.26 0.25 0.28 0.41 0.44 0.54 0.74 0.68 0.46 0.85 0.68 0.55 0.75 0.39 0.27 0.22 0.23 0.13 0.17 0.13 0.12 0.10 0.03 0.01 0.01 0.00 0.03 0.08 0.06 0.01 0.00 0.01 0.04 0.05 0.06 0.10 0.15 0.11 0.04 0.01 0.01 0.01 0.00
0.68 0.52 0.47 0.42 0.40 0.48 0.61 0.46 0.31 0.19 0.12 0.13 0.20 0.37 0.52 0.49 0.47 0.56 0.54 0.53 0.73 0.61 0.49 0.45 0.59 0.40 0.44 0.25 0.35 0.15 0.20 0.16 0.16 0.07 0.03 0.00 0.01 0.13 0.17 0.07 0.00 0.01 0.02 0.01 0.01 0.04 0.05 0.03 0.02 0.00 0.00 0.00 0.00 0.00
0.69 0.50 0.35 0.35 0.36 0.39 0.48 0.57 0.43 0.22 0.16 0.18 0.31 0.56 0.60 0.74 0.60 0.47 0.33 0.42 0.71 0.75 0.52 0.29 0.32 0.47 0.48 0.32 0.20 0.20 0.23 0.20 0.11 0.15 0.07 0.01 0.01 0.06 0.09 0.00 0.00 0.00 0.00 0.01 0.01 0.01 0.03 0.02 0.00 0.00 0.00 0.00 0.00 0.01
0.40 0.29 0.21 0.20 0.26 0.32 0.36 0.45 0.48 0.42 0.35 0.43 0.74 0.96 1.13 1.04 0.83 0.57 0.56 0.67 0.91 1.00 0.77 0.27 0.17 0.35 0.32 0.46 0.19 0.12 0.15 0.37 0.21 0.11 0.10 0.07 0.04 0.06 0.03 0.00 0.00 0.00 0.00 0.00 0.00 0.00 0.00 0.00 0.00 0.00 0.01 0.01 0.06 0.15
0.28 0.24 0.21 0.15 0.16 0.21 0.24 0.30 0.42 0.61 1.02 1.57 1.75 1.80 1.63 1.03 0.84 0.72 1.00 1.01 1.05 0.78 0.55 0.31 0.13 0.16 0.28 0.22 0.34 0.17 0.15 0.29 0.34 0.19 0.11 0.10 0.05 0.01 0.00 0.00 0.00 0.00 0.00 0.00 0.00 0.00 0.01 0.02 0.02 0.05 0.12 0.14 0.13 0.11
0.26 0.23 0.19 0.15 0.11 0.12 0.19 0.25 0.48 0.90 1.86 2.48 2.58 2.01 1.20 1.00 0.81 0.98 1.21 0.91 0.61 0.30 0.21 0.25 0.17 0.15 0.17 0.17 0.35 0.30 0.23 0.13 0.09 0.04 0.07 0.09 0.03 0.00 0.01 0.01 0.00 0.00 0.00 0.00 0.00 0.00 0.01 0.06 0.13 0.16 0.15 0.11 0.08 0.03
0.30 0.25 0.26 0.17 0.05 0.06 0.15 0.27 0.44 0.71 1.31 1.82 1.68 1.27 1.22 1.30 1.16 1.14 1.07 0.61 0.19 0.07 0.03 0.09 0.06 0.07 0.18 0.17 0.19 0.32 0.23 0.16 0.09 0.02 0.08 0.06 0.01 0.01 0.02 0.01 0.01 0.00 0.01 0.01 0.03 0.09 0.14 0.17 0.16 0.11 0.06 0.02 0.00 0.00
0.33 0.26 0.26 0.17 0.09 0.08 0.13 0.34 0.51 0.71 1.04 1.13 1.38 1.77 1.78 1.82 1.50 1.10 0.55 0.24 0.07 0.01 0.01 0.02 0.04 0.07 0.10 0.14 0.32 0.31 0.32 0.23 0.07 0.09 0.08 0.07 0.04 0.05 0.05 0.03 0.02 0.03 0.05 0.08 0.10 0.09 0.06 0.03 0.01 0.00 0.00 0.00 0.00 0.00
0.29 0.25 0.21 0.21 0.22 0.28 0.30 0.31 0.44 0.67 0.58 0.80 1.05 1.34 1.10 1.14 0.77 0.46 0.19 0.07 0.06 0.06 0.03 0.03 0.06 0.07 0.11 0.23 0.50 0.53 0.53 0.28 0.29 0.17 0.09 0.17 0.24 0.13 0.03 0.00 0.00 0.00 0.00 0.00 0.00 0.00 0.00 0.00 0.00 0.00 0.00 0.00 0.00 0.00
0.12 0.11 0.15 0.23 0.24 0.30 0.38 0.37 0.33 0.11 0.21 0.31 0.36 0.59 0.57 0.44 0.32 0.23 0.19 0.15 0.14 0.16 0.18 0.28 0.37 0.31 0.31 0.45 0.47 0.40 0.36 0.31 0.25 0.25 0.26 0.29 0.16 0.02 0.01 0.01 0.01 0.00 0.00 0.01 0.01 0.02 0.01 0.00 0.00 0.00 0.00 0.00 0.00 0.00
0.17 0.07 0.04 0.07 0.10 0.15 0.19 0.22 0.16 0.12 0.28 0.20 0.21 0.20 0.24 0.19 0.27 0.28 0.28 0.24 0.25 0.32 0.37 0.40 0.36 0.38 0.47 0.41 0.31 0.29 0.30 0.31 0.31 0.15 0.04 0.03 0.03 0.04 0.04 0.06 0.03 0.01 0.01 0.01 0.01 0.00 0.00 0.00 0.00 0.00 0.00 0.00 0.00 0.00
0.38 0.11 0.03 0.02 0.01 0.05 0.05 0.16 0.16 0.22 0.29 0.18 0.24 0.22 0.16 0.13 0.18 0.23 0.19 0.17 0.15 0.19 0.22 0.16 0.15 0.20 0.23 0.25 0.27 0.23 0.29 0.19 0.08 0.03 0.02 0.03 0.02 0.03 0.06 0.05 0.04 0.03 0.01 0.00 0.00 0.00 0.00 0.00 0.00 0.00 0.00 0.00 0.00 0.00
0.52 0.07 0.01 0.01 0.01 0.04 0.07 0.04 0.11 0.08 0.11 0.20 0.23 0.34 0.28 0.35 0.28 0.21 0.17 0.10 0.05 0.08 0.08 0.09 0.09 0.11 0.16 0.16 0.19 0.14 0.08 0.09 0.10 0.11 0.11 0.09 0.06 0.07 0.06 0.05 0.05 0.02 0.01 0.02 0.00 0.00 0.00 0.00 0.00 0.00 0.00 0.00 0.00 0.00
0.31 0.13 0.05 0.04 0.01 0.01 0.07 0.04 0.03 0.08 0.21 0.26 0.31 0.28 0.22 0.27 0.27 0.26 0.20 0.17 0.14 0.10 0.12 0.16 0.19 0.20 0.23 0.26 0.29 0.23 0.20 0.17 0.18 0.22 0.25 0.23 0.14 0.10 0.09 0.09 0.08 0.06 0.03 0.02 0.01 0.00 0.00 0.00 0.00 0.00 0.00 0.00 0.02 0.02
0.60 0.44 0.17 0.09 0.01 0.01 0.00 0.01 0.00 0.03 0.14 0.21 0.24 0.19 0.14 0.22 0.16 0.09 0.06 0.04 0.04 0.04 0.13 0.18 0.29 0.33 0.37 0.39 0.32 0.24 0.20 0.17 0.11 0.11 0.19 0.23 0.20 0.13 0.11 0.07 0.05 0.03 0.02 0.01 0.01 0.00 0.00 0.00 0.00 0.01 0.02 0.04 0.07 0.04
0.63 0.67 0.35 0.14 0.04 0.00 0.00 0.00 0.01 0.03 0.06 0.10 0.12 0.04 0.12 0.08 0.03 0.02 0.01 0.00 0.02 0.11 0.23 0.31 0.32 0.37 0.40 0.34 0.26 0.16 0.14 0.09 0.08 0.03 0.05 0.10 0.12 0.06 0.07 0.06 0.04 0.02 0.02 0.02 0.02 0.02 0.02 0.03 0.02 0.04 0.07 0.03 0.03 0.03
0.41 0.45 0.39 0.20 0.14 0.01 0.00 0.00 0.02 0.01 0.01 0.05 0.03 0.01 0.05 0.06 0.04 0.02 0.00 0.02 0.11 0.23 0.26 0.29 0.26 0.24 0.21 0.21 0.24 0.19 0.19 0.08 0.07 0.06 0.05 0.03 0.05 0.06 0.08 0.09 0.05 0.06 0.07 0.08 0.08 0.06 0.04 0.03 0.04 0.03 0.03 0.02 0.03 0.05
0.38 0.41 0.41 0.34 0.19 0.05 0.01 0.00 0.00 0.01 0.01 0.02 0.02 0.01 0.03 0.04 0.05 0.01 0.03 0.06 0.18 0.29 0.26 0.19 0.19 0.17 0.17 0.17 0.10 0.11 0.15 0.11 0.11 0.12 0.11 0.09 0.09 0.10 0.09 0.11 0.11 0.10 0.09 0.08 0.09 0.07 0.06 0.05 0.03 0.02 0.02 0.05 0.08 0.08
0.37 0.38 0.35 0.31 0.18 0.11 0.04 0.02 0.01 0.01 0.01 0.02 0.02 0.02 0.04 0.05 0.02 0.02 0.05 0.12 0.21 0.16 0.13 0.19 0.17 0.15 0.10 0.08 0.09 0.12 0.15 0.07 0.07 0.08 0.09 0.05 0.05 0.08 0.07 0.08 0.07 0.08 0.08 0.07 0.05 0.03 0.02 0.02 0.04 0.05 0.07 0.09 0.08 0.10
0.30 0.29 0.24 0.16 0.06 0.03 0.02 0.03 0.03 0.03 0.02 0.02 0.03 0.03 0.03 0.02 0.02 0.04 0.07 0.18 0.13 0.12 0.13 0.15 0.11 0.12 0.12 0.15 0.15 0.13 0.11 0.07 0.05 0.06 0.10 0.08 0.07 0.06 0.05 0.05 0.05 0.05 0.05 0.03 0.03 0.04 0.05 0.07 0.07 0.07 0.06 0.08 0.11 0.12
0.16 0.10 0.09 0.06 0.04 0.04 0.03 0.03 0.03 0.04 0.03 0.06 0.08 0.07 0.05 0.06 0.04 0.07 0.12 0.21 0.15 0.16 0.17 0.18 0.17 0.11 0.11 0.11 0.11 0.10 0.09 0.08 0.03 0.03 0.06 0.05 0.06 0.07 0.06 0.05 0.04 0.03 0.03 0.06 0.12 0.12 0.07 0.04 0.05 0.07 0.08 0.09 0.13 0.15
0.08 0.05 0.02 0.02 0.04 0.08 0.09 0.07 0.09 0.10 0.10 0.13 0.10 0.10 0.15 0.11 0.09 0.15 0.15 0.16 0.15 0.18 0.15 0.12 0.08 0.07 0.08 0.08 0.06 0.04 0.02 0.01 0.01 0.02 0.02 0.03 0.03 0.04 0.08 0.15 0.16 0.13 0.07 0.08 0.12 0.15 0.16 0.13 0.12 0.11 0.12 0.10 0.13 0.20
0.05 0.05 0.09 0.10 0.14 0.14 0.14 0.13 0.15 0.14 0.13 0.13 0.14 0.10 0.12 0.10 0.14 0.16 0.18 0.21 0.16 0.10 0.05 0.03 0.02 0.02 0.03 0.04 0.05 0.04 0.03 0.01 0.01 0.01 0.02 0.05 0.06 0.09 0.10 0.10 0.12 0.08 0.07 0.10 0.11 0.12 0.17 0.21 0.19 0.17 0.17 0.19 0.18 0.15
0.09 0.08 0.08 0.09 0.10 0.08 0.08 0.10 0.11 0.12 0.12 0.11 0.09 0.06 0.07 0.08 0.17 0.18 0.18 0.14 0.11 0.07 0.05 0.06 0.09 0.06 0.04 0.02 0.01 0.03 0.03 0.04 0.04 0.03 0.02 0.04 0.09 0.11 0.08 0.08 0.08 0.07 0.08 0.08 0.08 0.13 0.16 0.17 0.16 0.17 0.23 0.24 0.20 0.22
0.05 0.05 0.04 0.04 0.04 0.07 0.09 0.06 0.08 0.06 0.03 0.03 0.03 0.04 0.05 0.12 0.19 0.15 0.10 0.07 0.07 0.08 0.09 0.08 0.07 0.04 0.05 0.04 0.03 0.04 0.10 0.08 0.10 0.13 0.13 0.10 0.10 0.10 0.08 0.09 0.08 0.08 0.08 0.08 0.07 0.06 0.06 0.05 0.05 0.12 0.13 0.13 0.20 0.24
0.02 0.02 0.02 0.02 0.05 0.08 0.06 0.04 0.06 0.06 0.06 0.04 0.04 0.04 0.10 0.12 0.13 0.09 0.08 0.11 0.06 0.05 0.04 0.03 0.03 0.04 0.05 0.06 0.08 0.09 0.13 0.12 0.12 0.13 0.12 0.12 0.11 0.10 0.08 0.07 0.06 0.06 0.06 0.07 0.07 0.07 0.08 0.07 0.09 0.12 0.09 0.09 0.12 0.14
0.02 0.02 0.02 0.02 0.05 0.04 0.03 0.07 0.08 0.09 0.07 0.05 0.07 0.05 0.10 0.07 0.07 0.11 0.09 0.07 0.04 0.04 0.06 0.08 0.09 0.12 0.15 0.16 0.15 0.14 0.14 0.13 0.11 0.11 0.12 0.12 0.10 0.08 0.05 0.04 0.05 0.06 0.07 0.06 0.07 0.08 0.09 0.08 0.09 0.07 0.09 0.08 0.09 0.08
0.02 0.02 0.02 0.02 0.03 0.04 0.02 0.03 0.02 0.03 0.04 0.05 0.09 0.09 0.09 0.09 0.16 0.20 0.15 0.11 0.14 0.15 0.16 0.17 0.18 0.20 0.21 0.17 0.14 0.14 0.13 0.12 0.10 0.09 0.10 0.09 0.06 0.04 0.03 0.04 0.04 0.05 0.06 0.06 0.07 0.08 0.08 0.07 0.07 0.07 0.07 0.07 0.07 0.07

GFSWCAN_prec_precacc_054.txt.gz
Total_Precipitation_Accumulation
0.81 0.62 0.43 0.28 0.21 0.19 0.21 0.24 0.22 0.25 0.20 0.18 0.21 0.22 0.07 0.08 0.22 0.48 0.45 0.41 1.00 0.35 0.08 0.07 0.06 0.01 0.01 0.17 0.36 0.14 0.14 0.14 0.15 0.15 0.08 0.03 0.01 0.00 0.00 0.00 0.00 0.00 0.00 0.00 0.03 0.04 0.01 0.00 0.01 0.05 0.04 0.03 0.04 0.03
0.99 0.68 0.33 0.21 0.18 0.18 0.18 0.20 0.20 0.24 0.15 0.13 0.18 0.21 0.12 0.12 0.34 0.52 0.44 0.40 0.95 0.69 0.25 0.07 0.06 0.01 0.01 0.06 0.27 0.05 0.07 0.07 0.06 0.07 0.05 0.05 0.01 0.00 0.00 0.00 0.00 0.00 0.00 0.00 0.04 0.02 0.00 0.00 0.01 0.02 0.03 0.04 0.03 0.03
0.87 0.66 0.46 0.20 0.15 0.15 0.19 0.23 0.20 0.24 0.17 0.16 0.22 0.25 0.12 0.21 0.45 0.49 0.44 0.50 1.27 1.12 0.48 0.17 0.09 0.07 0.05 0.05 0.13 0.10 0.02 0.02 0.05 0.11 0.11 0.08 0.05 0.01 0.01 0.01 0.02 0.03 0.00 0.00 0.02 0.02 0.00 0.01 0.00 0.01 0.03 0.04 0.05 0.14
0.85 0.65 0.53 0.35 0.20 0.14 0.18 0.22 0.19 0.23 0.24 0.20 0.33 0.24 0.15 0.46 0.43 0.44 0.64 0.81 1.05 1.09 0.91 0.30 0.13 0.09 0.06 0.04 0.04 0.05 0.04 0.02 0.05 0.11 0.17 0.16 0.16 0.08 0.06 0.02 0.07 0.05 0.02 0.02 0.05 0.01 0.01 0.02 0.05 0.08 0.12 0.19 0.16 0.05
0.63 0.68 0.54 0.44 0.37 0.23 0.16 0.20 0.20 0.22 0.29 0.26 0.45 0.17 0.39 0.51 0.41 0.61 0.83 1.05 0.86 0.83 0.85 0.49 0.27 0.14 0.14 0.10 0.07 0.04 0.07 0.06 0.06 0.09 0.11 0.06 0.03 0.04 0.05 0.07 0.09 0.01 0.00 0.04 0.05 0.05 0.12 0.16 0.18 0.22 0.17 0.06 0.04 0.06
0.55 0.51 0.53 0.43 0.40 0.45 0.34 0.31 0.28 0.27 0.21 0.33 0.34 0.33 0.48 0.52 0.65 0.83 0.86 0.63 0.88 0.69 0.56 0.76 0.40 0.27 0.24 0.31 0.20 0.21 0.13 0.12 0.11 0.04 0.02 0.01 0.00 0.05 0.09 0.06 0.01 0.00 0.01 0.04 0.05 0.06 0.10 0.15 0.11 0.04 0.01 0.01 0.01 0.00
0.68 0.53 0.48 0.43 0.43 0.52 0.64 0.49 0.35 0.27 0.27 0.36 0.27 0.45 0.59 0.58 0.56 0.66 0.60 0.56 0.74 0.64 0.51 0.47 0.60 0.40 0.45 0.33 0.42 0.18 0.22 0.17 0.17 0.08 0.03 0.00 0.01 0.14 0.17 0.07 0.00 0.01 0.02 0.01 0.01 0.04 0.05 0.03 0.02 0.00 0.00 0.00 0.00 0.00
0.70 0.50 0.35 0.36 0.38 0.40 0.49 0.60 0.51 0.38 0.36 0.26 0.39 0.65 0.67 0.79 0.63 0.48 0.35 0.42 0.72 0.78 0.55 0.31 0.33 0.48 0.49 0.37 0.28 0.25 0.27 0.25 0.15 0.17 0.07 0.01 0.02 0.06 0.09 0.00 0.00 0.00 0.00 0.01 0.01 0.01 0.03 0.02 0.00 0.00 0.00 0.00 0.00 0.01
0.40 0.29 0.21 0.20 0.26 0.32 0.37 0.47 0.51 0.45 0.38 0.48 0.82 0.99 1.21 1.08 0.85 0.58 0.58 0.67 0.92 1.01 0.78 0.28 0.17 0.36 0.32 0.49 0.25 0.16 0.19 0.43 0.24 0.12 0.11 0.08 0.05 0.06 0.03 0.00 0.00 0.00 0.00 0.00 0.00 0.00 0.00 0.00 0.00 0.00 0.01 0.01 0.06 0.15
0.28 0.24 0.21 0.15 0.16 0.21 0.24 0.30 0.42 0.61 1.02 1.57 1.75 1.81 1.64 1.04 0.87 0.86 1.17 1.07 1.08 0.79 0.56 0.31 0.13 0.17 0.28 0.23 0.46 0.32 0.20 0.32 0.40 0.24 0.14 0.15 0.09 0.01 0.00 0.00 0.00 0.00 0.00 0.00 0.00 0.00 0.01 0.02 0.02 0.05 0.12 0.14 0.13 0.11
0.26 0.23 0.19 0.15 0.11 0.12 0.19 0.25 0.48 0.91 1.86 2.48 2.61 2.12 1.23 1.04 0.96 1.17 1.33 0.95 0.62 0.30 0.21 0.25 0.17 0.20 0.23 0.19 0.38 0.50 0.53 0.31 0.25 0.28 0.25 0.25 0.12 0.02 0.01 0.01 0.01 0.01 0.00 0.00 0.00 0.00 0.01 0.06 0.13 0.16 0.15 0.11 0.08 0.03
0.30 0.25 0.26 0.17 0.05 0.06 0.15 0.27 0.44 0.72 1.33 1.99 1.97 1.39 1.29 1.39 1.20 1.17 1.12 0.65 0.22 0.08 0.04 0.13 0.10 0.11 0.35 0.34 0.36 0.58 0.46 0.40 0.25 0.09 0.16 0.13 0.05 0.04 0.07 0.06 0.05 0.03 0.02 0.02 0.04 0.09 0.15 0.18 0.16 0.12 0.07 0.03 0.00 0.00
0.33 0.27 0.26 0.18 0.09 0.08 0.14 0.35 0.54 0.79 1.36 1.55 1.50 1.84 1.83 1.87 1.51 1.12 0.59 0.29 0.11 0.03 0.03 0.06 0.12 0.11 0.16 0.38 0.60 0.43 0.44 0.32 0.16 0.14 0.10 0.07 0.04 0.05 0.07 0.05 0.05 0.06 0.06 0.09 0.11 0.11 0.08 0.07 0.06 0.03 0.02 0.01 0.00 0.00
0.31 0.26 0.22 0.24 0.28 0.33 0.34 0.38 0.56 1.04 1.06 0.99 1.19 1.51 1.23 1.19 0.81 0.51 0.23 0.09 0.08 0.07 0.04 0.04 0.08 0.08 0.11 0.25 0.58 0.57 0.54 0.29 0.30 0.17 0.09 0.17 0.24 0.13 0.03 0.00 0.00 0.00 0.00 0.01 0.02 0.03 0.04 0.03 0.01 0.00 0.00 0.00 0.00 0.00
0.20 0.18 0.23 0.34 0.33 0.40 0.50 0.60 0.75 0.58 0.53 0.53 0.50 0.67 0.62 0.49 0.38 0.28 0.22 0.18 0.17 0.18 0.20 0.29 0.39 0.31 0.31 0.45 0.47 0.40 0.36 0.31 0.25 0.25 0.27 0.29 0.16 0.02 0.01 0.01 0.02 0.01 0.02 0.03 0.03 0.03 0.02 0.00 0.00 0.00 0.00 0.00 0.00 0.00
0.32 0.18 0.16 0.24 0.25 0.33 0.44 0.52 0.38 0.22 0.32 0.21 0.25 0.24 0.28 0.22 0.29 0.31 0.30 0.27 0.28 0.34 0.37 0.40 0.40 0.44 0.55 0.44 0.32 0.29 0.30 0.32 0.32 0.16 0.05 0.03 0.03 0.04 0.04 0.06 0.04 0.03 0.03 0.02 0.03 0.02 0.01 0.00 0.00 0.00 0.00 0.00 0.00 0.00
0.49 0.17 0.08 0.09 0.13 0.17 0.17 0.26 0.19 0.22 0.29 0.18 0.27 0.27 0.19 0.16 0.22 0.27 0.22 0.20 0.16 0.20 0.23 0.16 0.16 0.22 0.27 0.29 0.30 0.27 0.32 0.21 0.09 0.04 0.03 0.03 0.03 0.04 0.07 0.07 0.09 0.10 0.06 0.03 0.01 0.01 0.01 0.01 0.00 0.00 0.00 0.00 0.00 0.00
0.57 0.12 0.05 0.09 0.10 0.14 0.19 0.17 0.13 0.08 0.12 0.25 0.28 0.41 0.32 0.40 0.32 0.24 0.20 0.13 0.07 0.09 0.10 0.13 0.12 0.13 0.18 0.18 0.22 0.22 0.18 0.19 0.17 0.16 0.16 0.15 0.13 0.16 0.15 0.14 0.15 0.08 0.04 0.04 0.03 0.03 0.02 0.01 0.00 0.00 0.00 0.00 0.00 0.00
0.31 0.13 0.06 0.05 0.02 0.03 0.09 0.04 0.03 0.09 0.25 0.30 0.35 0.31 0.24 0.30 0.33 0.33 0.27 0.22 0.18 0.11 0.13 0.19 0.21 0.22 0.26 0.31 0.34 0.31 0.29 0.26 0.28 0.34 0.39 0.37 0.27 0.20 0.18 0.17 0.14 0.10 0.08 0.07 0.04 0.03 0.01 0.00 0.00 0.00 0.00 0.00 0.02 0.02
0.60 0.44 0.17 0.09 0.01 0.01 0.00 0.01 0.00 0.03 0.17 0.26 0.29 0.21 0.15 0.25 0.18 0.10 0.07 0.05 0.05 0.05 0.15 0.22 0.35 0.41 0.45 0.49 0.46 0.38 0.33 0.30 0.20 0.17 0.27 0.33 0.30 0.19 0.17 0.11 0.09 0.07 0.06 0.06 0.05 0.04 0.02 0.01 0.01 0.01 0.02 0.04 0.07 0.04
0.63 0.67 0.35 0.14 0.04 0.00 0.00 0.00 0.02 0.04 0.08 0.14 0.17 0.06 0.15 0.09 0.03 0.02 0.01 0.00 0.02 0.15 0.30 0.40 0.43 0.47 0.52 0.48 0.38 0.26 0.24 0.18 0.15 0.07 0.09 0.15 0.20 0.12 0.12 0.12 0.08 0.06 0.05 0.06 0.05 0.05 0.05 0.06 0.05 0.05 0.07 0.03 0.03 0.03
0.41 0.45 0.39 0.20 0.14 0.01 0.01 0.00 0.02 0.03 0.02 0.08 0.05 0.03 0.08 0.07 0.04 0.02 0.00 0.02 0.13 0.29 0.36 0.39 0.35 0.33 0.30 0.30 0.34 0.28 0.29 0.15 0.12 0.10 0.09 0.07 0.09 0.10 0.12 0.14 0.08 0.10 0.10 0.12 0.11 0.09 0.07 0.06 0.06 0.05 0.04 0.03 0.03 0.05
0.38 0.41 0.41 0.34 0.19 0.05 0.01 0.00 0.00 0.01 0.02 0.02 0.02 0.01 0.03 0.04 0.05 0.01 0.03 0.08 0.22 0.36 0.34 0.26 0.27 0.25 0.24 0.26 0.15 0.16 0.21 0.15 0.14 0.15 0.15 0.12 0.12 0.13 0.12 0.13 0.13 0.12 0.11 0.11 0.11 0.09 0.08 0.07 0.04 0.03 0.02 0.05 0.08 0.08
0.37 0.38 0.35 0.31 0.18 0.11 0.04 0.02 0.01 0.01 0.01 0.02 0.02 0.03 0.06 0.05 0.02 0.02 0.06 0.13 0.25 0.19 0.16 0.23 0.22 0.19 0.14 0.10 0.12 0.15 0.19 0.10 0.09 0.10 0.12 0.06 0.06 0.10 0.08 0.09 0.08 0.09 0.09 0.08 0.06 0.04 0.03 0.03 0.04 0.05 0.07 0.09 0.08 0.10
0.30 0.29 0.24 0.16 0.06 0.03 0.02 0.03 0.03 0.03 0.02 0.02 0.03 0.04 0.04 0.02 0.02 0.04 0.07 0.19 0.14 0.14 0.16 0.16 0.13 0.13 0.14 0.17 0.17 0.15 0.12 0.08 0.06 0.06 0.11 0.08 0.08 0.06 0.05 0.06 0.05 0.05 0.05 0.03 0.03 0.04 0.05 0.07 0.07 0.07 0.06 0.08 0.11 0.13
0.16 0.11 0.09 0.07 0.04 0.04 0.03 0.03 0.03 0.04 0.04 0.06 0.08 0.08 0.05 0.06 0.05 0.08 0.14 0.23 0.17 0.18 0.18 0.19 0.17 0.11 0.11 0.12 0.11 0.11 0.09 0.08 0.03 0.03 0.07 0.05 0.06 0.07 0.06 0.05 0.04 0.03 0.03 0.06 0.12 0.12 0.07 0.04 0.05 0.07 0.08 0.09 0.13 0.16
0.08 0.05 0.02 0.02 0.04 0.08 0.09 0.07 0.09 0.10 0.10 0.13 0.11 0.10 0.15 0.12 0.09 0.16 0.17 0.17 0.16 0.20 0.16 0.12 0.08 0.07 0.08 0.09 0.06 0.04 0.02 0.01 0.01 0.02 0.02 0.03 0.03 0.04 0.08 0.15 0.16 0.14 0.08 0.08 0.12 0.15 0.16 0.13 0.12 0.11 0.12 0.10 0.13 0.21
0.05 0.05 0.09 0.10 0.14 0.14 0.14 0.13 0.15 0.14 0.13 0.14 0.14 0.10 0.12 0.11 0.15 0.18 0.20 0.24 0.17 0.10 0.05 0.03 0.02 0.02 0.03 0.04 0.05 0.04 0.03 0.01 0.01 0.01 0.02 0.05 0.06 0.09 0.10 0.11 0.12 0.08 0.07 0.10 0.11 0.13 0.17 0.21 0.20 0.17 0.18 0.19 0.18 0.16
0.09 0.08 0.08 0.09 0.10 0.08 0.09 0.10 0.12 0.13 0.13 0.12 0.09 0.06 0.07 0.09 0.19 0.20 0.20 0.16 0.12 0.07 0.05 0.06 0.09 0.06 0.04 0.02 0.01 0.03 0.03 0.04 0.04 0.03 0.02 0.04 0.09 0.12 0.08 0.08 0.08 0.07 0.08 0.08 0.08 0.13 0.16 0.18 0.16 0.17 0.23 0.25 0.21 0.23
0.05 0.05 0.04 0.04 0.04 0.07 0.09 0.07 0.08 0.06 0.03 0.03 0.03 0.04 0.06 0.14 0.22 0.17 0.11 0.07 0.07 0.08 0.09 0.08 0.07 0.04 0.05 0.04 0.03 0.04 0.10 0.08 0.10 0.13 0.13 0.10 0.11 0.10 0.08 0.09 0.08 0.08 0.08 0.08 0.07 0.06 0.06 0.05 0.05 0.12 0.13 0.13 0.20 0.25
0.02 0.02 0.02 0.02 0.05 0.08 0.06 0.04 0.06 0.06 0.06 0.04 0.04 0.04 0.11 0.13 0.14 0.10 0.08 0.12 0.06 0.05 0.04 0.03 0.03 0.05 0.05 0.06 0.08 0.09 0.13 0.12 0.12 0.13 0.12 0.12 0.11 0.10 0.09 0.07 0.06 0.07 0.07 0.07 0.07 0.08 0.08 0.07 0.10 0.12 0.09 0.09 0.13 0.14
0.02 0.02 0.02 0.02 0.06 0.05 0.04 0.08 0.08 0.09 0.07 0.05 0.07 0.05 0.10 0.08 0.07 0.11 0.10 0.07 0.04 0.04 0.06 0.08 0.10 0.12 0.15 0.16 0.15 0.14 0.14 0.13 0.11 0.11 0.12 0.12 0.10 0.08 0.05 0.05 0.05 0.06 0.07 0.06 0.07 0.08 0.09 0.08 0.09 0.07 0.10 0.09 0.09 0.09
0.02 0.02 0.02 0.02 0.04 0.05 0.04 0.05 0.03 0.03 0.04 0.05 0.09 0.09 0.10 0.09 0.16 0.20 0.16 0.11 0.14 0.15 0.16 0.17 0.19 0.20 0.21 0.17 0.14 0.14 0.13 0.12 0.10 0.10 0.10 0.09 0.06 0.04 0.03 0.04 0.04 0.05 0.06 0.06 0.07 0.08 0.08 0.07 0.07 0.07 0.07 0.07 0.08 0.07

GFSWCAN_prec_precacc_057.txt.gz
Total_Precipitation_Accumulation
0.82 0.63 0.45 0.31 0.24 0.22 0.24 0.36 0.38 0.43 0.30 0.26 0.23 0.24 0.10 0.10 0.27 0.50 0.49 0.47 1.04 0.38 0.11 0.13 0.09 0.01 0.01 0.17 0.36 0.14 0.14 0.14 0.15 0.15 0.08 0.03 0.01 0.00 0.00 0.00 0.00 0.00 0.00 0.00 0.03 0.04 0.01 0.00 0.01 0.05 0.04 0.03 0.04 0.03
1.09 0.74 0.39 0.27 0.25 0.24 0.27 0.34 0.33 0.38 0.23 0.18 0.19 0.22 0.15 0.14 0.37 0.55 0.49 0.53 1.01 0.71 0.27 0.10 0.09 0.03 0.01 0.06 0.27 0.05 0.07 0.07 0.06 0.07 0.05 0.05 0.01 0.00 0.00 0.00 0.00 0.00 0.00 0.00 0.04 0.02 0.00 0.00 0.01 0.02 0.03 0.04 0.03 0.03
0.95 0.78 0.60 0.36 0.28 0.25 0.29 0.32 0.29 0.31 0.21 0.19 0.25 0.28 0.16 0.23 0.48 0.51 0.46 0.58 1.42 1.17 0.49 0.19 0.12 0.11 0.06 0.05 0.13 0.10 0.02 0.02 0.05 0.11 0.11 0.08 0.05 0.01 0.01 0.01 0.02 0.04 0.01 0.00 0.02 0.02 0.00 0.01 0.00 0.01 0.03 0.04 0.05 0.14
0.88 0.70 0.59 0.42 0.25 0.18 0.22 0.26 0.23 0.26 0.28 0.27 0.38 0.28 0.17 0.48 0.45 0.45 0.65 0.84 1.21 1.17 0.92 0.30 0.14 0.10 0.07 0.06 0.04 0.05 0.04 0.02 0.05 0.12 0.17 0.16 0.16 0.08 0.06 0.02 0.07 0.05 0.02 0.03 0.05 0.01 0.01 0.02 0.05 0.08 0.12 0.19 0.16 0.05
0.64 0.69 0.55 0.45 0.38 0.25 0.19 0.22 0.21 0.25 0.34 0.30 0.48 0.21 0.40 0.52 0.42 0.61 0.83 1.07 0.91 0.95 0.88 0.49 0.28 0.15 0.15 0.11 0.08 0.05 0.07 0.06 0.06 0.09 0.11 0.06 0.03 0.04 0.05 0.07 0.09 0.01 0.00 0.04 0.05 0.06 0.12 0.16 0.18 0.22 0.17 0.06 0.04 0.06
0.55 0.51 0.53 0.44 0.41 0.46 0.35 0.32 0.28 0.28 0.22 0.35 0.35 0.34 0.49 0.52 0.65 0.83 0.91 0.74 0.98 0.78 0.61 0.76 0.40 0.30 0.27 0.34 0.23 0.23 0.15 0.12 0.11 0.04 0.02 0.01 0.00 0.05 0.09 0.06 0.01 0.00 0.01 0.04 0.05 0.06 0.10 0.15 0.11 0.04 0.01 0.01 0.01 0.00
0.68 0.53 0.48 0.43 0.43 0.52 0.64 0.49 0.36 0.27 0.28 0.40 0.29 0.51 0.61 0.59 0.57 0.73 0.69 0.65 0.81 0.73 0.58 0.47 0.60 0.42 0.54 0.39 0.45 0.20 0.23 0.18 0.17 0.08 0.03 0.00 0.01 0.14 0.17 0.07 0.00 0.01 0.02 0.01 0.01 0.04 0.05 0.03 0.02 0.00 0.00 0.00 0.00 0.00
0.70 0.50 0.36 0.37 0.39 0.40 0.49 0.61 0.51 0.39 0.37 0.27 0.42 0.67 0.67 0.80 0.79 0.65 0.37 0.43 0.75 0.82 0.58 0.31 0.33 0.50 0.53 0.43 0.34 0.32 0.30 0.26 0.18 0.18 0.07 0.01 0.02 0.06 0.09 0.00 0.00 0.00 0.00 0.01 0.01 0.01 0.03 0.02 0.00 0.00 0.00 0.00 0.00 0.01
0.40 0.29 0.22 0.21 0.26 0.33 0.38 0.48 0.55 0.49 0.39 0.50 0.85 1.05 1.28 1.17 1.17 0.68 0.59 0.75 0.99 1.05 0.83 0.28 0.18 0.37 0.33 0.50 0.28 0.29 0.48 0.58 0.26 0.13 0.12 0.09 0.05 0.06 0.03 0.00 0.00 0.00 0.00 0.00 0.00 0.00 0.00 0.00 0.00 0.00 0.01 0.01 0.06 0.15
0.28 0.24 0.21 0.15 0.17 0.22 0.26 0.32 0.44 0.62 1.04 1.63 1.88 1.95 1.72 1.11 0.96 0.94 1.24 1.15 1.10 0.81 0.56 0.31 0.13 0.17 0.28 0.23 0.47 0.34 0.28 0.52 0.45 0.25 0.16 0.15 0.09 0.01 0.00 0.00 0.00 0.00 0.00 0.00 0.00 0.00 0.01 0.02 0.02 0.05 0.12 0.14 0.13 0.11
0.26 0.23 0.20 0.16 0.12 0.13 0.24 0.30 0.53 0.95 1.93 2.59 2.69 2.15 1.25 1.08 1.00 1.29 1.39 0.98 0.63 0.31 0.21 0.25 0.17 0.20 0.23 0.19 0.38 0.50 0.54 0.35 0.29 0.29 0.25 0.25 0.12 0.02 0.01 0.01 0.01 0.01 0.01 0.00 0.00 0.00 0.01 0.06 0.13 0.16 0.15 0.11 0.08 0.03
0.30 0.25 0.26 0.18 0.05 0.07 0.18 0.31 0.48 0.77 1.36 2.01 2.00 1.41 1.32 1.43 1.36 1.42 1.17 0.66 0.22 0.08 0.04 0.13 0.10 0.11 0.35 0.34 0.36 0.61 0.47 0.41 0.28 0.11 0.18 0.14 0.05 0.04 0.07 0.07 0.06 0.06 0.06 0.04 0.05 0.10 0.15 0.18 0.16 0.12 0.08 0.04 0.03 0.05
0.33 0.27 0.26 0.18 0.09 0.08 0.14 0.35 0.54 0.81 1.41 1.67 1.58 1.86 1.93 2.04 1.66 1.23 0.61 0.29 0.11 0.03 0.03 0.06 0.12 0.12 0.16 0.38 0.63 0.53 0.55 0.39 0.18 0.22 0.18 0.09 0.04 0.06 0.08 0.10 0.13 0.17 0.20 0.22 0.23 0.20 0.14 0.10 0.10 0.09 0.12 0.17 0.18 0.18
0.31 0.26 0.23 0.24 0.28 0.33 0.36 0.41 0.59 1.15 1.31 1.13 1.27 1.56 1.35 1.26 0.84 0.55 0.24 0.09 0.09 0.07 0.05 0.04 0.10 0.12 0.13 0.31 0.70 0.77 0.67 0.37 0.34 0.20 0.11 0.19 0.29 0.16 0.04 0.01 0.01 0.02 0.04 0.08 0.08 0.11 0.15 0.17 0.19 0.21 0.19 0.14 0.08 0.03
0.21 0.19 0.25 0.35 0.35 0.42 0.53 0.62 0.79 0.70 0.78 0.80 0.74 0.81 0.69 0.57 0.45 0.32 0.26 0.21 0.22 0.20 0.21 0.31 0.44 0.39 0.38 0.52 0.53 0.43 0.39 0.35 0.27 0.26 0.27 0.29 0.16 0.03 0.02 0.02 0.03 0.04 0.07 0.12 0.15 0.17 0.18 0.15 0.11 0.09 0.05 0.01 0.00 0.00
0.37 0.23 0.21 0.29 0.33 0.43 0.57 0.66 0.57 0.47 0.57 0.39 0.36 0.36 0.38 0.33 0.39 0.39 0.38 0.36 0.36 0.40 0.42 0.47 0.49 0.58 0.62 0.46 0.34 0.31 0.31 0.33 0.34 0.18 0.07 0.05 0.06 0.08 0.09 0.12 0.13 0.16 0.17 0.14 0.12 0.08 0.06 0.04 0.01 0.00 0.00 0.00 0.00 0.00
0.62 0.23 0.15 0.15 0.18 0.23 0.28 0.37 0.29 0.26 0.32 0.22 0.34 0.37 0.28 0.22 0.26 0.31 0.27 0.24 0.19 0.21 0.25 0.19 0.19 0.30 0.36 0.34 0.34 0.31 0.37 0.28 0.16 0.09 0.07 0.08 0.08 0.10 0.15 0.16 0.19 0.21 0.16 0.08 0.05 0.04 0.03 0.01 0.00 0.00 0.00 0.00 0.00 0.00
0.81 0.29 0.23 0.26 0.20 0.24 0.31 0.33 0.21 0.08 0.13 0.29 0.31 0.47 0.37 0.46 0.38 0.29 0.25 0.20 0.12 0.14 0.14 0.16 0.15 0.14 0.20 0.20 0.26 0.28 0.29 0.31 0.31 0.30 0.29 0.27 0.24 0.26 0.25 0.23 0.25 0.18 0.10 0.08 0.07 0.08 0.06 0.04 0.03 0.03 0.01 0.00 0.00 0.00
0.35 0.21 0.21 0.21 0.15 0.15 0.20 0.11 0.06 0.12 0.30 0.34 0.40 0.35 0.26 0.34 0.39 0.39 0.32 0.28 0.23 0.14 0.15 0.22 0.23 0.25 0.29 0.35 0.40 0.37 0.39 0.37 0.40 0.46 0.49 0.48 0.38 0.30 0.30 0.28 0.23 0.17 0.13 0.13 0.10 0.07 0.06 0.04 0.04 0.02 0.01 0.01 0.02 0.02
0.60 0.45 0.19 0.11 0.02 0.01 0.00 0.01 0.00 0.05 0.21 0.29 0.32 0.22 0.16 0.27 0.21 0.11 0.07 0.06 0.05 0.05 0.16 0.24 0.39 0.46 0.52 0.56 0.55 0.49 0.45 0.41 0.31 0.24 0.35 0.43 0.43 0.29 0.27 0.19 0.16 0.13 0.10 0.10 0.10 0.09 0.06 0.05 0.03 0.02 0.03 0.05 0.07 0.04
0.63 0.67 0.35 0.14 0.04 0.00 0.00 0.00 0.03 0.05 0.09 0.16 0.18 0.06 0.16 0.09 0.03 0.02 0.01 0.00 0.02 0.17 0.35 0.47 0.49 0.54 0.61 0.58 0.48 0.37 0.35 0.28 0.24 0.14 0.16 0.22 0.29 0.18 0.17 0.17 0.13 0.10 0.09 0.09 0.08 0.09 0.08 0.09 0.08 0.07 0.09 0.05 0.04 0.04
0.41 0.45 0.39 0.20 0.14 0.01 0.01 0.00 0.03 0.04 0.03 0.09 0.06 0.04 0.08 0.07 0.04 0.02 0.00 0.02 0.16 0.35 0.44 0.47 0.43 0.42 0.39 0.39 0.45 0.37 0.41 0.24 0.19 0.15 0.16 0.12 0.14 0.15 0.16 0.19 0.11 0.12 0.12 0.14 0.13 0.10 0.08 0.07 0.08 0.06 0.05 0.04 0.04 0.06
0.38 0.41 0.41 0.34 0.19 0.05 0.01 0.00 0.00 0.01 0.02 0.02 0.02 0.01 0.03 0.04 0.05 0.01 0.03 0.09 0.25 0.42 0.41 0.32 0.35 0.32 0.32 0.36 0.22 0.22 0.29 0.21 0.18 0.19 0.18 0.15 0.15 0.16 0.14 0.15 0.14 0.13 0.12 0.12 0.12 0.10 0.09 0.07 0.05 0.03 0.02 0.05 0.08 0.08
0.37 0.38 0.35 0.31 0.18 0.11 0.04 0.02 0.01 0.01 0.01 0.02 0.02 0.03 0.07 0.05 0.02 0.02 0.06 0.14 0.28 0.22 0.19 0.28 0.27 0.24 0.19 0.14 0.15 0.19 0.25 0.13 0.11 0.12 0.14 0.06 0.06 0.10 0.09 0.09 0.08 0.09 0.10 0.08 0.06 0.04 0.03 0.03 0.04 0.05 0.07 0.09 0.08 0.10
0.30 0.29 0.24 0.16 0.06 0.03 0.02 0.03 0.03 0.03 0.02 0.02 0.03 0.05 0.04 0.02 0.02 0.04 0.08 0.20 0.16 0.15 0.18 0.19 0.15 0.16 0.17 0.20 0.20 0.17 0.14 0.08 0.06 0.07 0.12 0.08 0.08 0.06 0.05 0.06 0.05 0.05 0.05 0.03 0.03 0.04 0.05 0.07 0.07 0.07 0.06 0.08 0.11 0.13
0.16 0.11 0.10 0.07 0.04 0.04 0.03 0.03 0.04 0.04 0.04 0.06 0.09 0.09 0.05 0.06 0.05 0.09 0.14 0.24 0.18 0.19 0.20 0.21 0.18 0.11 0.12 0.12 0.12 0.11 0.10 0.08 0.03 0.03 0.07 0.05 0.06 0.07 0.06 0.05 0.04 0.03 0.03 0.06 0.12 0.12 0.07 0.04 0.05 0.07 0.08 0.09 0.13 0.16
0.08 0.05 0.02 0.03 0.04 0.08 0.09 0.07 0.09 0.10 0.10 0.13 0.11 0.10 0.15 0.12 0.09 0.17 0.18 0.18 0.17 0.20 0.16 0.13 0.08 0.07 0.09 0.09 0.06 0.04 0.02 0.01 0.01 0.02 0.03 0.03 0.03 0.04 0.08 0.15 0.17 0.14 0.08 0.09 0.12 0.15 0.16 0.14 0.12 0.11 0.12 0.10 0.13 0.21
0.05 0.05 0.09 0.10 0.14 0.14 0.14 0.13 0.15 0.15 0.14 0.14 0.14 0.10 0.12 0.11 0.16 0.19 0.22 0.25 0.18 0.10 0.05 0.03 0.02 0.02 0.03 0.05 0.05 0.04 0.03 0.01 0.01 0.01 0.02 0.05 0.06 0.09 0.10 0.11 0.12 0.08 0.07 0.10 0.11 0.13 0.17 0.21 0.20 0.17 0.18 0.20 0.19 0.16
0.09 0.08 0.08 0.09 0.10 0.08 0.09 0.11 0.12 0.13 0.13 0.12 0.09 0.06 0.08 0.10 0.20 0.21 0.22 0.17 0.13 0.07 0.06 0.06 0.09 0.06 0.04 0.02 0.01 0.03 0.03 0.04 0.04 0.03 0.02 0.04 0.09 0.12 0.08 0.08 0.08 0.07 0.08 0.08 0.08 0.13 0.16 0.18 0.17 0.17 0.23 0.25 0.21 0.23
0.05 0.05 0.04 0.04 0.04 0.08 0.10 0.07 0.08 0.06 0.03 0.03 0.03 0.04 0.06 0.15 0.24 0.18 0.12 0.08 0.07 0.08 0.09 0.08 0.07 0.04 0.05 0.04 0.03 0.04 0.10 0.08 0.10 0.13 0.13 0.10 0.11 0.10 0.09 0.09 0.08 0.08 0.08 0.08 0.07 0.06 0.06 0.05 0.05 0.12 0.13 0.13 0.20 0.25
0.02 0.02 0.02 0.02 0.06 0.08 0.06 0.04 0.06 0.06 0.06 0.04 0.04 0.04 0.11 0.14 0.15 0.10 0.08 0.12 0.06 0.05 0.04 0.03 0.03 0.05 0.05 0.06 0.08 0.09 0.13 0.12 0.12 0.13 0.12 0.12 0.11 0.10 0.09 0.07 0.06 0.07 0.07 0.07 0.07 0.08 0.08 0.07 0.10 0.12 0.09 0.09 0.13 0.14
0.02 0.02 0.02 0.02 0.07 0.05 0.04 0.08 0.08 0.09 0.07 0.05 0.07 0.05 0.10 0.08 0.07 0.11 0.10 0.07 0.04 0.04 0.06 0.08 0.10 0.12 0.15 0.16 0.15 0.14 0.14 0.13 0.11 0.11 0.12 0.12 0.10 0.08 0.05 0.05 0.05 0.06 0.07 0.06 0.07 0.08 0.09 0.08 0.09 0.07 0.10 0.09 0.09 0.09
0.02 0.02 0.02 0.02 0.04 0.06 0.04 0.06 0.03 0.03 0.04 0.05 0.09 0.09 0.10 0.09 0.16 0.20 0.16 0.11 0.14 0.15 0.16 0.17 0.19 0.20 0.21 0.17 0.14 0.14 0.13 0.12 0.10 0.10 0.11 0.09 0.06 0.04 0.03 0.04 0.04 0.05 0.06 0.06 0.07 0.08 0.08 0.07 0.07 0.07 0.07 0.07 0.08 0.07

GFSWCAN_prec_precacc_063.txt.gz
Total_Precipitation_Accumulation
0.84 0.64 0.47 0.34 0.40 0.32 0.35 0.48 0.47 0.49 0.40 0.37 0.37 0.35 0.25 0.33 0.61 0.67 0.52 0.48 1.09 0.42 0.15 0.21 0.17 0.05 0.01 0.21 0.41 0.16 0.19 0.16 0.15 0.15 0.08 0.03 0.01 0.00 0.00 0.01 0.03 0.00 0.02 0.01 0.05 0.05 0.01 0.00 0.01 0.05 0.04 0.03 0.04 0.03
1.13 0.76 0.42 0.31 0.33 0.33 0.36 0.43 0.42 0.45 0.34 0.30 0.33 0.37 0.31 0.38 0.77 0.66 0.54 0.56 1.05 0.79 0.38 0.17 0.21 0.10 0.02 0.06 0.28 0.06 0.09 0.07 0.06 0.07 0.05 0.06 0.01 0.01 0.00 0.00 0.01 0.02 0.03 0.03 0.05 0.02 0.00 0.00 0.01 0.02 0.03 0.04 0.03 0.03
1.08 0.90 0.68 0.41 0.33 0.35 0.40 0.44 0.42 0.43 0.35 0.34 0.40 0.45 0.36 0.53 0.85 0.62 0.49 0.60 1.48 1.31 0.56 0.23 0.23 0.24 0.10 0.05 0.13 0.13 0.04 0.02 0.05 0.11 0.11 0.08 0.06 0.01 0.01 0.01 0.02 0.04 0.01 0.00 0.03 0.02 0.00 0.01 0.00 0.01 0.03 0.04 0.05 0.14
0.98 0.87 0.82 0.60 0.40 0.33 0.39 0.44 0.38 0.41 0.46 0.45 0.56 0.53 0.48 0.81 0.75 0.58 0.68 0.85 1.24 1.25 0.95 0.34 0.17 0.20 0.15 0.07 0.06 0.06 0.04 0.02 0.06 0.12 0.17 0.16 0.16 0.08 0.06 0.02 0.07 0.05 0.02 0.03 0.05 0.01 0.01 0.02 0.05 0.08 0.12 0.19 0.16 0.05
0.65 0.73 0.65 0.58 0.54 0.42 0.34 0.37 0.39 0.47 0.60 0.56 0.77 0.58 0.75 0.81 0.66 0.71 0.89 1.11 0.92 1.01 0.92 0.51 0.31 0.22 0.31 0.19 0.14 0.08 0.08 0.08 0.09 0.10 0.11 0.06 0.03 0.04 0.05 0.07 0.09 0.01 0.00 0.04 0.05 0.06 0.12 0.16 0.18 0.22 0.17 0.06 0.04 0.06
0.56 0.53 0.56 0.48 0.48 0.56 0.46 0.46 0.48 0.51 0.42 0.57 0.62 0.63 0.74 0.69 0.78 0.90 1.01 0.78 0.98 0.79 0.63 0.78 0.42 0.32 0.36 0.45 0.34 0.31 0.17 0.15 0.15 0.09 0.04 0.01 0.00 0.05 0.09 0.06 0.01 0.00 0.01 0.04 0.05 0.06 0.10 0.15 0.11 0.04 0.01 0.01 0.01 0.00
0.69 0.54 0.49 0.44 0.45 0.55 0.70 0.59 0.47 0.39 0.42 0.59 0.49 0.69 0.70 0.67 0.62 0.75 0.73 0.66 0.81 0.74 0.61 0.49 0.63 0.44 0.56 0.46 0.58 0.33 0.31 0.22 0.21 0.13 0.05 0.01 0.02 0.14 0.17 0.07 0.00 0.01 0.02 0.01 0.01 0.04 0.05 0.03 0.02 0.00 0.00 0.00 0.00 0.00
0.71 0.51 0.37 0.37 0.39 0.41 0.51 0.63 0.55 0.47 0.46 0.37 0.51 0.71 0.70 0.82 0.80 0.65 0.37 0.43 0.75 0.82 0.63 0.35 0.38 0.57 0.74 0.58 0.48 0.53 0.47 0.38 0.26 0.22 0.09 0.02 0.03 0.09 0.10 0.00 0.00 0.00 0.00 0.01 0.01 0.01 0.03 0.02 0.00 0.00 0.00 0.00 0.00 0.01
0.40 0.29 0.23 0.22 0.27 0.33 0.39 0.50 0.58 0.52 0.42 0.54 0.89 1.07 1.29 1.18 1.18 0.68 0.60 0.77 1.01 1.10 0.87 0.31 0.26 0.51 0.63 0.74 0.43 0.45 0.66 0.73 0.34 0.18 0.14 0.11 0.07 0.08 0.03 0.00 0.00 0.00 0.00 0.00 0.00 0.00 0.00 0.00 0.00 0.00 0.01 0.01 0.06 0.15
0.28 0.25 0.21 0.16 0.18 0.24 0.28 0.33 0.44 0.62 1.04 1.64 1.90 2.00 1.75 1.15 1.03 1.01 1.35 1.45 1.21 0.94 0.63 0.32 0.21 0.41 0.74 0.47 0.58 0.50 0.39 0.71 0.78 0.34 0.19 0.17 0.09 0.01 0.00 0.00 0.00 0.00 0.00 0.00 0.00 0.00 0.01 0.02 0.02 0.05 0.12 0.14 0.13 0.11
0.27 0.26 0.23 0.19 0.16 0.18 0.26 0.31 0.53 0.96 1.95 2.62 2.72 2.17 1.26 1.15 1.23 1.49 1.53 1.15 0.68 0.36 0.23 0.25 0.24 0.44 0.82 0.62 0.46 0.58 0.58 0.39 0.35 0.43 0.34 0.30 0.14 0.02 0.01 0.01 0.01 0.01 0.01 0.00 0.00 0.00 0.01 0.06 0.13 0.16 0.15 0.11 0.08 0.03
0.31 0.25 0.27 0.19 0.07 0.10 0.22 0.35 0.52 0.81 1.40 2.08 2.07 1.46 1.44 1.61 1.49 1.52 1.21 0.70 0.24 0.10 0.05 0.13 0.12 0.30 0.86 1.00 0.53 0.68 0.52 0.43 0.30 0.12 0.22 0.21 0.09 0.05 0.07 0.07 0.06 0.06 0.06 0.04 0.05 0.10 0.15 0.18 0.16 0.12 0.08 0.05 0.04 0.06
0.33 0.27 0.26 0.19 0.11 0.10 0.16 0.37 0.56 0.82 1.42 1.70 1.65 1.91 2.04 2.13 1.83 1.41 0.63 0.31 0.13 0.05 0.03 0.07 0.14 0.24 0.42 0.52 0.67 0.54 0.57 0.40 0.19 0.25 0.24 0.14 0.05 0.06 0.08 0.10 0.14 0.18 0.21 0.25 0.28 0.28 0.25 0.22 0.20 0.18 0.22 0.31 0.38 0.46
0.31 0.26 0.23 0.24 0.28 0.33 0.36 0.41 0.59 1.17 1.33 1.16 1.33 1.62 1.47 1.49 1.11 0.71 0.30 0.11 0.09 0.08 0.05 0.05 0.11 0.14 0.18 0.31 0.70 0.78 0.70 0.41 0.42 0.29 0.17 0.23 0.31 0.19 0.06 0.03 0.05 0.10 0.15 0.22 0.33 0.37 0.37 0.40 0.51 0.62 0.62 0.60 0.50 0.45
0.21 0.19 0.25 0.36 0.35 0.42 0.53 0.63 0.80 0.76 0.85 0.91 0.94 0.99 0.85 0.77 0.64 0.45 0.34 0.23 0.22 0.21 0.22 0.33 0.47 0.42 0.42 0.57 0.60 0.51 0.49 0.45 0.35 0.32 0.32 0.34 0.22 0.07 0.05 0.05 0.09 0.14 0.21 0.28 0.31 0.31 0.33 0.31 0.27 0.33 0.34 0.30 0.21 0.20
0.37 0.23 0.22 0.30 0.34 0.44 0.58 0.69 0.64 0.59 0.74 0.56 0.52 0.51 0.50 0.50 0.55 0.51 0.45 0.41 0.42 0.48 0.50 0.55 0.62 0.67 0.74 0.55 0.41 0.38 0.38 0.40 0.41 0.25 0.13 0.10 0.12 0.17 0.18 0.23 0.26 0.32 0.35 0.30 0.26 0.21 0.19 0.16 0.10 0.11 0.12 0.10 0.10 0.07
0.65 0.27 0.17 0.18 0.23 0.28 0.34 0.47 0.44 0.44 0.49 0.39 0.55 0.61 0.52 0.47 0.47 0.49 0.43 0.41 0.36 0.43 0.46 0.36 0.31 0.42 0.47 0.40 0.38 0.34 0.43 0.37 0.26 0.18 0.16 0.17 0.19 0.24 0.32 0.35 0.39 0.39 0.30 0.18 0.14 0.14 0.12 0.09 0.04 0.03 0.04 0.05 0.03 0.03
1.02 0.46 0.31 0.31 0.26 0.29 0.40 0.40 0.26 0.15 0.23 0.44 0.50 0.67 0.60 0.71 0.62 0.49 0.47 0.40 0.28 0.29 0.29 0.31 0.24 0.21 0.28 0.28 0.34 0.37 0.39 0.45 0.41 0.41 0.41 0.40 0.38 0.43 0.44 0.42 0.43 0.31 0.17 0.17 0.15 0.17 0.15 0.12 0.09 0.09 0.06 0.04 0.01 0.01
0.58 0.40 0.34 0.28 0.19 0.19 0.24 0.15 0.07 0.15 0.40 0.43 0.51 0.48 0.41 0.49 0.57 0.59 0.51 0.47 0.38 0.25 0.25 0.33 0.34 0.36 0.40 0.45 0.51 0.47 0.52 0.48 0.50 0.59 0.62 0.63 0.54 0.48 0.50 0.45 0.36 0.27 0.21 0.22 0.17 0.13 0.12 0.09 0.09 0.07 0.05 0.03 0.03 0.03
0.79 0.63 0.33 0.20 0.05 0.02 0.01 0.02 0.01 0.06 0.26 0.35 0.40 0.26 0.19 0.32 0.25 0.13 0.10 0.09 0.10 0.09 0.19 0.29 0.47 0.56 0.62 0.66 0.66 0.61 0.61 0.55 0.42 0.34 0.47 0.58 0.62 0.44 0.43 0.31 0.27 0.23 0.16 0.16 0.15 0.13 0.09 0.07 0.07 0.06 0.05 0.07 0.08 0.06
0.69 0.75 0.41 0.15 0.04 0.00 0.00 0.01 0.04 0.06 0.10 0.18 0.19 0.06 0.16 0.09 0.03 0.02 0.01 0.00 0.03 0.19 0.41 0.57 0.59 0.64 0.71 0.68 0.59 0.48 0.48 0.41 0.38 0.25 0.29 0.35 0.47 0.30 0.30 0.30 0.23 0.17 0.14 0.14 0.11 0.12 0.10 0.11 0.11 0.09 0.11 0.07 0.05 0.06
0.41 0.46 0.39 0.20 0.14 0.01 0.01 0.01 0.04 0.05 0.04 0.10 0.06 0.04 0.08 0.07 0.04 0.02 0.00 0.03 0.19 0.41 0.53 0.55 0.52 0.51 0.47 0.50 0.58 0.51 0.57 0.38 0.32 0.26 0.28 0.23 0.24 0.24 0.25 0.28 0.17 0.17 0.15 0.17 0.15 0.12 0.09 0.08 0.08 0.06 0.06 0.05 0.04 0.06
0.38 0.41 0.41 0.34 0.19 0.05 0.01 0.00 0.00 0.01 0.02 0.03 0.02 0.01 0.03 0.04 0.05 0.01 0.04 0.10 0.28 0.47 0.47 0.39 0.43 0.41 0.41 0.48 0.32 0.32 0.42 0.31 0.27 0.29 0.29 0.23 0.21 0.21 0.17 0.17 0.16 0.13 0.12 0.12 0.12 0.10 0.09 0.07 0.05 0.03 0.02 0.05 0.08 0.08
0.37 0.38 0.35 0.31 0.18 0.11 0.04 0.02 0.01 0.01 0.01 0.02 0.02 0.04 0.07 0.05 0.02 0.02 0.07 0.16 0.32 0.25 0.21 0.32 0.31 0.29 0.24 0.19 0.21 0.26 0.35 0.21 0.18 0.19 0.20 0.09 0.08 0.11 0.09 0.09 0.08 0.09 0.10 0.08 0.06 0.04 0.03 0.03 0.04 0.05 0.07 0.09 0.08 0.10
0.30 0.29 0.24 0.16 0.06 0.03 0.02 0.03 0.03 0.03 0.03 0.03 0.03 0.06 0.04 0.02 0.02 0.04 0.08 0.22 0.18 0.17 0.21 0.22 0.17 0.19 0.21 0.25 0.25 0.22 0.17 0.11 0.07 0.08 0.13 0.08 0.08 0.06 0.05 0.06 0.05 0.05 0.05 0.03 0.03 0.04 0.05 0.07 0.07 0.07 0.06 0.08 0.11 0.13
0.16 0.11 0.10 0.07 0.04 0.04 0.04 0.03 0.04 0.05 0.04 0.07 0.09 0.09 0.05 0.06 0.05 0.09 0.15 0.26 0.20 0.22 0.23 0.24 0.21 0.13 0.13 0.13 0.12 0.11 0.10 0.08 0.03 0.03 0.07 0.05 0.06 0.07 0.06 0.05 0.04 0.03 0.03 0.07 0.13 0.12 0.07 0.04 0.05 0.07 0.08 0.09 0.13 0.16
0.08 0.05 0.02 0.03 0.05 0.08 0.09 0.07 0.09 0.10 0.11 0.14 0.12 0.10 0.15 0.12 0.10 0.19 0.19 0.19 0.18 0.22 0.17 0.14 0.08 0.07 0.09 0.09 0.06 0.04 0.02 0.01 0.01 0.02 0.03 0.03 0.03 0.04 0.08 0.15 0.17 0.14 0.08 0.09 0.12 0.15 0.16 0.14 0.12 0.11 0.13 0.10 0.13 0.21
0.05 0.05 0.09 0.10 0.14 0.14 0.14 0.13 0.15 0.15 0.14 0.15 0.14 0.11 0.13 0.11 0.17 0.22 0.23 0.26 0.18 0.11 0.06 0.03 0.02 0.02 0.03 0.05 0.05 0.04 0.03 0.01 0.01 0.01 0.02 0.05 0.06 0.09 0.10 0.11 0.12 0.08 0.07 0.10 0.11 0.13 0.17 0.21 0.20 0.17 0.18 0.20 0.19 0.16
0.09 0.08 0.08 0.09 0.10 0.08 0.09 0.11 0.12 0.13 0.14 0.12 0.09 0.07 0.08 0.11 0.22 0.23 0.24 0.18 0.14 0.07 0.06 0.06 0.09 0.06 0.04 0.02 0.01 0.03 0.03 0.04 0.04 0.03 0.02 0.04 0.09 0.12 0.08 0.08 0.08 0.07 0.08 0.08 0.08 0.13 0.16 0.18 0.17 0.17 0.23 0.25 0.21 0.23
0.05 0.05 0.04 0.04 0.04 0.08 0.10 0.07 0.09 0.07 0.04 0.03 0.03 0.05 0.07 0.16 0.26 0.20 0.13 0.09 0.08 0.09 0.10 0.08 0.07 0.04 0.05 0.04 0.03 0.04 0.10 0.08 0.10 0.13 0.13 0.10 0.11 0.11 0.09 0.09 0.08 0.09 0.09 0.08 0.07 0.06 0.06 0.05 0.05 0.12 0.13 0.13 0.20 0.25
0.02 0.02 0.02 0.03 0.06 0.09 0.06 0.04 0.06 0.06 0.06 0.05 0.04 0.04 0.12 0.15 0.16 0.11 0.09 0.12 0.07 0.05 0.04 0.03 0.03 0.05 0.05 0.06 0.08 0.09 0.13 0.12 0.12 0.13 0.13 0.12 0.11 0.10 0.09 0.07 0.07 0.07 0.07 0.07 0.07 0.08 0.08 0.07 0.10 0.12 0.09 0.09 0.13 0.14
0.02 0.03 0.02 0.02 0.07 0.05 0.05 0.09 0.08 0.10 0.08 0.05 0.08 0.06 0.10 0.08 0.08 0.12 0.10 0.07 0.04 0.05 0.06 0.09 0.10 0.13 0.15 0.16 0.15 0.14 0.14 0.13 0.12 0.12 0.12 0.12 0.11 0.09 0.06 0.05 0.05 0.06 0.07 0.06 0.07 0.08 0.09 0.08 0.09 0.07 0.10 0.09 0.09 0.09
0.02 0.02 0.02 0.02 0.04 0.06 0.05 0.07 0.04 0.04 0.05 0.06 0.09 0.09 0.10 0.09 0.16 0.21 0.16 0.12 0.14 0.15 0.16 0.18 0.19 0.21 0.21 0.17 0.14 0.14 0.13 0.12 0.11 0.10 0.11 0.09 0.07 0.04 0.04 0.04 0.04 0.05 0.06 0.06 0.07 0.08 0.08 0.07 0.07 0.07 0.07 0.07 0.08 0.07